GW2233 Weather Reports


time (UTC)temp
C
wind
direction
speed
KPH
gust
KPH
rain 1hr
cm
rain 24hr
cm
rain mn
cm
humidity
%
barometer
mb
20260508095904 9 330 4.8 11.3 0.03 0.15 0.15 95 1016.3
20260508095805 9 327 4.8 11.3 0.03 0.15 0.15 95 1016.2
20260508095705 9 325 4.8 11.3 0.03 0.15 0.15 95 1016.1
20260508095604 9 323 4.8 11.3 0.03 0.15 0.15 95 1016.2
20260508095504 9 322 4.8 12.9 0.03 0.15 0.13 94 1016.3
20260508095403 9 320 6.4 12.9 0.03 0.15 0.13 94 1016.3
20260508095306 9 318 6.4 12.9 0.03 0.15 0.13 94 1016.3
20260508095205 9 317 6.4 12.9 0.03 0.15 0.13 95 1016.2
20260508095119 9 318 6.4 12.9 0.03 0.15 0.13 95 1016.1
20260508095103 9 318 6.4 12.9 0.03 0.15 0.13 95 1016.1
20260508095003 9 319 4.8 12.9 0.03 0.15 0.13 95 1016.2
20260508094804 9 316 6.4 12.9 0.03 0.15 0.13 95 1016.2
20260508094705 9 317 6.4 12.9 0.03 0.15 0.13 95 1016.2
20260508094603 9 318 6.4 12.9 0.03 0.15 0.13 95 1016.4
20260508094505 9 318 6.4 12.9 0.03 0.15 0.13 95 1016.3
20260508094403 9 318 6.4 11.3 0.03 0.15 0.13 95 1016.3
20260508094303 9 318 6.4 11.3 0.03 0.15 0.13 95 1016.2
20260508094219 9 317 4.8 11.3 0.03 0.15 0.13 95 1016.1
20260508094204 9 317 4.8 11.3 0.03 0.15 0.13 95 1016.1
20260508094103 9 315 4.8 11.3 0.03 0.15 0.13 94 1016.1
20260508094020 9 314 4.8 11.3 0.03 0.15 0.13 94 1016.2
20260508093903 9 316 4.8 11.3 0.03 0.15 0.13 95 1016.0
20260508093703 9 316 4.8 11.3 0.03 0.15 0.13 95 1016.1
20260508093603 9 314 4.8 9.7 0.03 0.15 0.13 95 1016.2
20260508093521 9 315 4.8 9.7 0.03 0.15 0.13 95 1016.1
20260508093503 9 316 4.8 11.3 0.03 0.15 0.13 95 1016.1
20260508093403 9 317 4.8 11.3 0.03 0.15 0.13 95 1016.1
20260508093205 9 320 4.8 11.3 0.03 0.13 0.13 95 1016.1
20260508093119 9 319 4.8 11.3 0.03 0.13 0.13 94 1016.2
20260508093105 9 319 4.8 11.3 0.03 0.13 0.13 94 1016.2
20260508093003 9 316 4.8 11.3 0.03 0.13 0.13 95 1016.2
20260508092804 9 317 4.8 11.3 0.03 0.13 0.13 95 1016.2
20260508092703 9 317 4.8 11.3 0.03 0.13 0.13 95 1016.1
20260508092604 9 319 4.8 11.3 0.03 0.13 0.13 95 1016.1
20260508092503 9 321 3.2 11.3 0.03 0.13 0.13 95 1016.1
20260508092404 9 324 3.2 11.3 0.03 0.13 0.13 95 1016.0
20260508092312 9 329 3.2 11.3 0.03 0.13 0.13 95 1016.1
20260508092203 9 334 3.2 11.3 0.05 0.13 0.13 95 1016.1
20260508092104 9 341 3.2 11.3 0.05 0.13 0.13 95 1016.1
20260508092004 9 349 3.2 12.9 0.03 0.13 0.13 95 1016.1
20260508091905 9 352 3.2 12.9 0.03 0.13 0.13 95 1016.1
20260508091803 9 353 3.2 12.9 0.03 0.13 0.13 95 1016.2
20260508091705 9 353 4.8 12.9 0.03 0.13 0.13 95 1016.0
20260508091603 9 353 4.8 12.9 0.03 0.13 0.13 94 1016.1
20260508091516 9 353 4.8 12.9 0.03 0.13 0.13 94 1016.0
20260508091503 9 352 4.8 12.9 0.03 0.13 0.13 94 1016.0
20260508091404 9 352 4.8 12.9 0.05 0.13 0.13 94 1016.1
20260508091216 9 352 3.2 12.9 0.05 0.13 0.13 94 1016.2
20260508091103 9 351 3.2 12.9 0.05 0.13 0.13 94 1016.2
20260508090904 9 347 3.2 11.3 0.05 0.13 0.13 94 1016.1
20260508090703 9 350 3.2 9.7 0.05 0.13 0.13 94 1016.1
20260508090604 9 354 3.2 9.7 0.05 0.13 0.13 94 1016.0
20260508090519 9 359 3.2 9.7 0.05 0.13 0.13 94 1016.2
20260508090404 9 3 3.2 9.7 0.05 0.13 0.13 94 1016.2
20260508090203 9 356 4.8 14.5 0.05 0.13 0.13 94 1015.9
20260508090103 9 354 4.8 14.5 0.05 0.13 0.13 94 1016.0
20260508090003 9 353 4.8 14.5 0.05 0.13 0.13 94 1016.0
20260508085905 9 355 4.8 14.5 0.05 0.13 0.13 94 1016.2
20260508085804 9 354 4.8 14.5 0.05 0.13 0.13 94 1016.1
20260508085703 9 353 4.8 14.5 0.05 0.13 0.13 95 1016.0
20260508085605 9 350 4.8 14.5 0.05 0.13 0.13 94 1015.9
20260508085504 9 344 4.8 14.5 0.05 0.13 0.13 94 1016.0
20260508085404 9 343 4.8 14.5 0.05 0.13 0.13 95 1016.1
20260508085306 9 344 4.8 14.5 0.05 0.13 0.13 95 1015.9
20260508085204 9 349 3.2 14.5 0.05 0.13 0.13 95 1016.0
20260508085105 9 347 3.2 12.9 0.05 0.13 0.13 95 1016.1
20260508085004 9 348 3.2 11.3 0.05 0.13 0.13 95 1015.8
20260508084905 9 348 3.2 11.3 0.05 0.13 0.13 95 1015.9
20260508084803 9 346 4.8 11.3 0.05 0.13 0.13 95 1015.9
20260508084703 9 345 4.8 11.3 0.05 0.13 0.13 95 1015.8
20260508084603 9 344 4.8 11.3 0.05 0.13 0.13 95 1016.0
20260508084504 9 343 4.8 11.3 0.08 0.13 0.13 95 1015.9
20260508084417 8 347 4.8 11.3 0.08 0.13 0.13 95 1016.0
20260508084404 8 346 4.8 11.3 0.08 0.13 0.13 95 1016.0
20260508084320 8 345 4.8 11.3 0.05 0.10 0.10 95 1015.9
20260508084304 8 345 4.8 11.3 0.05 0.10 0.10 95 1015.9
20260508084004 8 349 4.8 11.3 0.05 0.10 0.10 95 1015.7
20260508083918 8 347 4.8 11.3 0.05 0.10 0.10 95 1015.8
20260508083904 8 348 4.8 9.7 0.05 0.10 0.10 95 1015.8
20260508083805 8 351 4.8 12.9 0.05 0.10 0.10 95 1015.9
20260508083603 8 346 4.8 12.9 0.05 0.10 0.10 95 1015.9
20260508083504 8 344 4.8 12.9 0.05 0.10 0.10 95 1015.8
20260508083404 8 341 4.8 12.9 0.05 0.10 0.10 95 1015.8
20260508083304 8 340 4.8 12.9 0.05 0.10 0.10 95 1015.8
20260508083203 8 339 4.8 12.9 0.08 0.10 0.10 95 1015.8
20260508083119 8 339 4.8 12.9 0.05 0.10 0.10 95 1015.8
20260508083103 8 339 4.8 12.9 0.05 0.10 0.10 95 1015.8
20260508083003 8 339 4.8 12.9 0.05 0.10 0.10 95 1015.8
20260508082803 8 335 4.8 12.9 0.05 0.10 0.10 95 1015.9
20260508082721 8 337 4.8 12.9 0.05 0.10 0.10 95 1015.8
20260508082703 8 339 4.8 12.9 0.05 0.10 0.10 95 1015.8
20260508082605 8 343 4.8 11.3 0.05 0.10 0.10 95 1015.7
20260508082403 8 349 4.8 11.3 0.05 0.10 0.10 95 1015.8
20260508082319 8 349 4.8 11.3 0.05 0.10 0.10 95 1015.8
20260508082306 8 349 4.8 11.3 0.05 0.10 0.10 95 1015.8
20260508082203 8 351 4.8 11.3 0.05 0.10 0.10 95 1015.5
20260508082117 8 353 4.8 11.3 0.05 0.10 0.10 95 1015.8
20260508082019 8 352 4.8 14.5 0.05 0.10 0.10 95 1015.5
20260508082004 8 351 4.8 14.5 0.05 0.10 0.10 95 1015.5
20260508081704 8 352 4.8 14.5 0.05 0.10 0.10 95 1015.8
20260508081604 8 351 4.8 14.5 0.05 0.10 0.10 95 1015.9
20260508081504 8 350 4.8 14.5 0.05 0.10 0.10 95 1015.7
20260508081419 8 351 4.8 14.5 0.05 0.08 0.08 95 1015.7
20260508081303 8 354 4.8 14.5 0.05 0.08 0.08 95 1015.9
20260508081103 8 353 4.8 14.5 0.05 0.08 0.08 95 1015.7
20260508081004 8 351 4.8 14.5 0.05 0.08 0.08 95 1015.7
20260508080920 8 352 4.8 14.5 0.05 0.08 0.08 95 1015.8
20260508080904 8 351 4.8 12.9 0.05 0.08 0.08 95 1015.8
20260508080804 8 352 4.8 12.9 0.05 0.08 0.08 95 1015.7
20260508080603 8 350 4.8 12.9 0.05 0.08 0.08 95 1015.5
20260508080505 8 349 4.8 12.9 0.05 0.08 0.08 95 1015.5
20260508080403 8 350 4.8 12.9 0.05 0.08 0.08 95 1015.5
20260508080319 8 350 4.8 12.9 0.05 0.08 0.08 95 1015.5
20260508080303 8 347 4.8 12.9 0.05 0.08 0.08 95 1015.5
20260508080203 8 347 4.8 12.9 0.05 0.08 0.08 95 1015.7
20260508080005 8 347 6.4 12.9 0.05 0.05 0.05 95 1015.4
20260508075922 8 346 6.4 12.9 0.05 0.05 0.05 95 1015.5
20260508075903 8 345 6.4 12.9 0.05 0.05 0.05 95 1015.5
20260508075805 8 346 6.4 12.9 0.05 0.05 0.05 95 1015.5
20260508075617 8 348 4.8 12.9 0.05 0.05 0.05 95 1015.5
20260508075503 8 347 4.8 12.9 0.05 0.05 0.05 95 1015.5
20260508075308 8 348 4.8 12.9 0.05 0.05 0.05 95 1015.5
20260508075205 8 347 4.8 12.9 0.05 0.05 0.05 95 1015.5
20260508075105 8 350 3.2 12.9 0.05 0.05 0.05 95 1015.5
20260508075005 8 348 3.2 12.9 0.05 0.05 0.05 95 1015.8
20260508074903 8 349 3.2 12.9 0.05 0.05 0.05 96 1015.5
20260508074804 8 350 3.2 11.3 0.05 0.05 0.05 96 1015.5
20260508074704 8 350 3.2 11.3 0.05 0.05 0.05 96 1015.7
20260508074604 8 350 3.2 11.3 0.05 0.05 0.05 96 1015.7
20260508074503 8 350 4.8 11.3 0.05 0.05 0.05 96 1015.4
20260508074404 8 350 4.8 11.3 0.05 0.05 0.05 96 1015.5
20260508074304 8 347 4.8 11.3 0.05 0.05 0.05 96 1015.5
20260508074218 8 348 4.8 11.3 0.05 0.05 0.05 96 1015.5
20260508074205 8 349 4.8 11.3 0.05 0.05 0.05 96 1015.5
20260508074103 8 351 4.8 11.3 0.05 0.05 0.05 96 1015.3
20260508073905 8 360 4.8 11.3 0.05 0.05 0.05 96 1015.4
20260508073803 8 3 4.8 11.3 0.05 0.05 0.05 96 1015.4
20260508073704 8 10 4.8 11.3 0.05 0.05 0.05 96 1015.4
20260508073605 8 15 4.8 11.3 0.05 0.05 0.05 96 1015.4
20260508073504 8 15 3.2 11.3 0.05 0.05 0.05 96 1015.3
20260508073419 8 14 3.2 11.3 0.05 0.05 0.05 96 1015.4
20260508073404 8 15 3.2 11.3 0.05 0.05 0.05 96 1015.4
20260508073304 8 21 3.2 11.3 0.05 0.05 0.05 96 1015.4
20260508073123 8 22 3.2 11.3 0.05 0.05 0.05 96 1015.3
20260508073104 8 23 3.2 11.3 0.05 0.05 0.05 96 1015.3
20260508073003 8 29 3.2 11.3 0.05 0.05 0.05 96 1015.2
20260508072803 8 31 3.2 14.5 0.05 0.05 0.05 96 1015.2
20260508072705 8 28 3.2 14.5 0.05 0.05 0.05 96 1015.4
20260508072603 8 32 3.2 14.5 0.05 0.05 0.05 96 1015.3
20260508072503 8 32 3.2 14.5 0.05 0.05 0.05 96 1015.4
20260508072405 8 32 4.8 14.5 0.05 0.05 0.05 96 1015.3
20260508072307 8 27 4.8 14.5 0.05 0.05 0.05 96 1015.2
20260508072204 8 18 4.8 14.5 0.05 0.05 0.05 96 1015.2
20260508072105 8 13 4.8 14.5 0.05 0.05 0.05 96 1015.3
20260508072019 8 6 6.4 14.5 0.05 0.05 0.05 96 1015.3
20260508072004 8 6 6.4 14.5 0.05 0.05 0.05 96 1015.3
20260508071905 8 4 6.4 14.5 0.05 0.05 0.05 96 1015.2
20260508071705 8 359 4.8 14.5 0.03 0.03 0.03 96 1015.2
20260508071503 8 347 4.8 12.9 0.03 0.03 0.03 96 1015.3
20260508071403 8 343 4.8 12.9 0.03 0.03 0.03 96 1015.3
20260508071303 8 338 4.8 12.9 0.03 0.03 0.03 96 1015.2
20260508071203 8 343 4.8 12.9 0.03 0.03 0.03 96 1015.2
20260508071122 8 346 4.8 12.9 0.03 0.03 0.03 96 1015.2
20260508071104 8 346 4.8 12.9 0.03 0.03 0.03 96 1015.2
20260508071003 8 345 3.2 9.7 0.03 0.03 0.03 96 1015.3
20260508070803 8 338 3.2 9.7 0.03 0.03 0.03 96 1015.3
20260508070705 8 335 3.2 9.7 0.03 0.03 0.03 96 1015.3
20260508070603 8 337 3.2 9.7 0.03 0.03 0.03 96 1015.3
20260508070503 8 342 3.2 9.7 0.03 0.03 0.03 96 1015.3
20260508070404 8 341 3.2 9.7 0.03 0.03 0.03 96 1015.2
20260508070303 8 344 3.2 9.7 0.03 0.03 0.03 96 1015.4
20260508070203 8 341 3.2 9.7 0.03 0.03 0.03 96 1015.2
20260508070003 8 345 3.2 9.7 0.03 0.03 0.03 96 1015.1
20260508065905 8 349 3.2 9.7 0.03 0.03 0.03 96 1015.2
20260508065803 8 350 3.2 9.7 0.00 0.00 0.03 96 1015.2
20260508065704 8 354 3.2 9.7 0.00 0.00 0.00 96 1015.1
20260508065603 8 353 3.2 9.7 0.00 0.00 0.00 96 1015.2
20260508065504 8 348 3.2 9.7 0.00 0.00 0.00 96 1015.3
20260508065403 8 349 3.2 9.7 0.00 0.00 0.00 96 1015.1
20260508065306 8 349 3.2 9.7 0.00 0.00 0.00 96 1015.1
20260508065203 8 347 3.2 9.7 0.00 0.00 0.00 96 1015.3
20260508065105 8 346 4.8 9.7 0.00 0.00 0.00 96 1015.3
20260508065005 8 342 4.8 9.7 0.00 0.00 0.00 96 1015.1
20260508064903 8 342 4.8 9.7 0.00 0.00 0.00 96 1015.2
20260508064803 8 344 4.8 9.7 0.00 0.00 0.00 96 1015.1
20260508064703 8 341 4.8 9.7 0.00 0.00 0.00 96 1015.1
20260508064605 8 340 4.8 12.9 0.00 0.00 0.00 96 1015.1
20260508064504 8 336 4.8 12.9 0.00 0.00 0.00 96 1015.3
20260508064420 8 335 4.8 12.9 0.00 0.00 0.00 96 1015.1
20260508064405 8 334 4.8 12.9 0.00 0.00 0.00 96 1015.1
20260508064304 8 332 4.8 12.9 0.00 0.00 0.00 95 1015.1
20260508064103 8 333 4.8 12.9 0.00 0.00 0.00 95 1015.1
20260508064003 8 334 4.8 12.9 0.00 0.00 0.00 95 1015.2
20260508063903 8 335 4.8 12.9 0.00 0.00 0.00 95 1015.2
20260508063804 8 336 4.8 14.5 0.00 0.00 0.00 95 1015.1
20260508063703 8 333 4.8 14.5 0.00 0.00 0.00 95 1015.1
20260508063405 8 336 4.8 14.5 0.00 0.00 0.00 95 1015.1
20260508063304 8 338 4.8 14.5 0.00 0.00 0.00 95 1015.1
20260508063203 8 337 4.8 14.5 0.00 0.00 0.00 95 1015.1
20260508063118 8 335 4.8 14.5 0.00 0.00 0.00 95 1015.1
20260508063103 8 334 4.8 14.5 0.00 0.00 0.00 95 1015.1
20260508063003 8 333 4.8 14.5 0.00 0.00 0.00 95 1015.2
20260508062804 8 327 3.2 14.5 0.00 0.00 0.00 95 1015.1
20260508062705 8 333 3.2 14.5 0.00 0.00 0.00 95 1015.1
20260508062604 8 335 3.2 9.7 0.00 0.00 0.00 95 1015.1
20260508062505 8 336 3.2 9.7 0.00 0.00 0.00 95 1015.1
20260508062404 8 334 4.8 9.7 0.00 0.00 0.00 95 1015.1
20260508062306 8 331 4.8 9.7 0.00 0.00 0.00 95 1015.1
20260508062204 8 331 4.8 9.7 0.00 0.00 0.00 95 1015.1
20260508062105 8 332 4.8 9.7 0.00 0.00 0.00 95 1015.1
20260508062005 8 333 4.8 9.7 0.00 0.00 0.00 95 1015.0
20260508061903 8 334 4.8 9.7 0.00 0.00 0.00 95 1015.1
20260508061805 8 334 4.8 9.7 0.00 0.00 0.00 95 1015.1
20260508061705 8 328 4.8 11.3 0.00 0.00 0.00 95 1015.2
20260508061603 8 326 4.8 11.3 0.00 0.00 0.00 95 1015.2
20260508061503 8 328 4.8 11.3 0.00 0.00 0.00 95 1015.0
20260508061405 8 329 4.8 11.3 0.00 0.00 0.00 95 1015.1
20260508061305 8 328 4.8 11.3 0.00 0.00 0.00 95 1015.1
20260508061205 8 330 4.8 11.3 0.00 0.00 0.00 95 1015.0
20260508061105 8 330 4.8 11.3 0.00 0.00 0.00 95 1015.0
20260508061003 8 331 4.8 11.3 0.00 0.00 0.00 95 1014.9
20260508060919 8 332 4.8 11.3 0.00 0.00 0.00 95 1014.9
20260508060903 8 332 4.8 11.3 0.00 0.00 0.00 95 1014.9
20260508060803 8 333 4.8 11.3 0.00 0.00 0.00 95 1014.9
20260508060603 8 343 4.8 11.3 0.00 0.00 0.00 95 1015.0
20260508060505 8 338 4.8 9.7 0.00 0.00 0.00 95 1014.9
20260508060404 8 344 4.8 11.3 0.00 0.00 0.00 95 1014.8
20260508060303 8 345 4.8 11.3 0.00 0.00 0.00 95 1014.8
20260508060204 8 346 4.8 11.3 0.00 0.00 0.00 95 1014.7
20260508060108 8 345 4.8 11.3 0.00 0.00 0.00 95 1014.8
20260508055903 8 343 4.8 11.3 0.00 0.00 0.00 94 1014.7
20260508055803 8 341 4.8 11.3 0.00 0.00 0.00 94 1014.7
20260508055718 8 338 4.8 11.3 0.00 0.00 0.00 94 1014.7
20260508055705 8 337 4.8 11.3 0.00 0.00 0.00 94 1014.8
20260508055604 8 332 4.8 11.3 0.00 0.00 0.00 94 1014.8
20260508055418 8 329 4.8 11.3 0.00 0.00 0.00 94 1015.0
20260508055404 8 328 4.8 11.3 0.00 0.00 0.00 94 1015.0
20260508055306 8 326 4.8 12.9 0.00 0.00 0.00 94 1014.8
20260508055105 8 329 4.8 12.9 0.00 0.00 0.00 94 1014.7
20260508055003 8 330 4.8 12.9 0.00 0.00 0.00 94 1014.7
20260508054904 8 330 4.8 12.9 0.00 0.00 0.00 94 1015.0
20260508054803 8 332 4.8 12.9 0.00 0.00 0.00 94 1014.9
20260508054705 8 330 4.8 12.9 0.00 0.00 0.00 94 1014.8
20260508054604 8 329 4.8 12.9 0.00 0.00 0.00 94 1014.8
20260508054517 8 330 4.8 12.9 0.00 0.00 0.00 93 1014.8
20260508054405 8 330 4.8 12.9 0.00 0.00 0.00 93 1015.0
20260508054204 8 327 4.8 12.9 0.00 0.00 0.00 93 1014.9
20260508054103 8 324 4.8 12.9 0.00 0.00 0.00 93 1014.9
20260508054003 8 321 4.8 12.9 0.00 0.00 0.00 93 1014.9
20260508053921 8 319 4.8 9.7 0.00 0.00 0.00 93 1014.8
20260508053903 8 320 4.8 9.7 0.00 0.00 0.00 93 1014.8
20260508053805 8 321 4.8 9.7 0.00 0.00 0.00 93 1014.7
20260508053605 8 326 4.8 11.3 0.00 0.00 0.00 93 1014.8
20260508053503 8 330 4.8 11.3 0.00 0.00 0.00 93 1014.8
20260508053403 8 334 4.8 11.3 0.00 0.00 0.00 93 1014.8
20260508053304 8 334 4.8 11.3 0.00 0.00 0.00 93 1014.9
20260508053219 8 336 4.8 11.3 0.00 0.00 0.00 93 1014.9
20260508053205 8 336 4.8 11.3 0.00 0.00 0.00 93 1014.9
20260508053105 8 338 4.8 11.3 0.00 0.00 0.00 93 1014.6
20260508052903 8 342 4.8 11.3 0.00 0.00 0.00 93 1014.8
20260508052817 8 339 4.8 11.3 0.00 0.00 0.00 93 1014.7
20260508052803 8 339 4.8 11.3 0.00 0.00 0.00 93 1014.7
20260508052704 8 342 4.8 11.3 0.00 0.00 0.00 93 1014.8
20260508052503 8 338 4.8 11.3 0.00 0.00 0.00 93 1014.6
20260508052420 8 338 4.8 11.3 0.00 0.00 0.00 93 1014.7
20260508052403 8 339 4.8 11.3 0.00 0.00 0.00 93 1014.7
20260508052306 8 342 4.8 11.3 0.00 0.00 0.00 93 1014.7
20260508052217 8 341 4.8 11.3 0.00 0.00 0.00 93 1014.6
20260508052103 8 341 4.8 12.9 0.00 0.00 0.00 93 1014.7
20260508051916 8 340 4.8 12.9 0.00 0.00 0.00 93 1014.6
20260508051903 8 339 4.8 12.9 0.00 0.00 0.00 93 1014.6
20260508051819 8 339 4.8 12.9 0.00 0.00 0.00 93 1014.7
20260508051803 8 339 4.8 12.9 0.00 0.00 0.00 93 1014.6
20260508051503 8 341 4.8 12.9 0.00 0.00 0.00 93 1014.7
20260508051405 8 341 4.8 12.9 0.00 0.00 0.00 93 1014.7
20260508051304 8 340 4.8 12.9 0.00 0.00 0.00 93 1014.8
20260508051205 8 346 4.8 12.9 0.00 0.00 0.00 93 1014.8
20260508051104 8 346 4.8 12.9 0.00 0.00 0.00 93 1014.7
20260508051016 8 350 4.8 12.9 0.00 0.00 0.00 93 1014.7
20260508051003 8 351 4.8 12.9 0.00 0.00 0.00 93 1014.7
20260508050903 8 347 4.8 11.3 0.00 0.00 0.00 93 1014.8
20260508050704 8 351 4.8 11.3 0.00 0.00 0.00 93 1014.6
20260508050503 8 349 4.8 11.3 0.00 0.00 0.00 93 1014.7
20260508050403 8 348 4.8 11.3 0.00 0.00 0.00 93 1014.7
20260508050303 8 347 4.8 11.3 0.00 0.00 0.00 93 1014.6
20260508050215 8 344 4.8 11.3 0.00 0.00 0.00 93 1014.6
20260508050203 8 343 4.8 11.3 0.00 0.00 0.00 93 1014.6
20260508050004 8 341 4.8 11.3 0.00 0.00 0.00 93 1014.7
20260508045916 8 341 4.8 11.3 0.00 0.00 0.00 93 1014.7
20260508045905 8 342 4.8 11.3 0.00 0.00 0.00 93 1014.8
20260508045803 8 339 4.8 11.3 0.00 0.00 0.00 93 1014.8
20260508045604 8 335 4.8 11.3 0.00 0.00 0.00 93 1014.7
20260508045503 8 335 4.8 11.3 0.00 0.00 0.00 93 1014.8
20260508045403 8 333 4.8 11.3 0.00 0.00 0.00 93 1014.7
20260508045320 8 334 4.8 11.3 0.00 0.00 0.00 93 1014.7
20260508045306 8 334 4.8 11.3 0.00 0.00 0.00 93 1014.7
20260508045204 8 333 4.8 11.3 0.00 0.00 0.00 93 1014.7
20260508045117 8 335 4.8 11.3 0.00 0.00 0.00 93 1014.6
20260508045003 8 339 4.8 11.3 0.00 0.00 0.00 93 1014.7
20260508044817 8 339 4.8 11.3 0.00 0.00 0.00 93 1014.7
20260508044704 8 342 4.8 11.3 0.00 0.00 0.00 93 1014.7
20260508044603 8 343 4.8 11.3 0.00 0.00 0.00 93 1014.7
20260508044504 8 341 4.8 11.3 0.00 0.00 0.00 93 1014.8
20260508044404 8 346 4.8 11.3 0.00 0.00 0.00 93 1014.8
20260508044303 8 345 4.8 11.3 0.00 0.00 0.00 93 1014.8
20260508044204 8 345 4.8 11.3 0.00 0.00 0.00 93 1014.8
20260508044119 8 343 4.8 11.3 0.00 0.00 0.00 93 1014.8
20260508044103 8 343 4.8 11.3 0.00 0.00 0.00 93 1014.8
20260508044003 8 345 4.8 11.3 0.00 0.00 0.00 93 1014.7
20260508043804 8 349 3.2 11.3 0.00 0.00 0.00 92 1014.9
20260508043705 8 350 3.2 11.3 0.00 0.00 0.00 92 1014.8
20260508043620 8 350 4.8 11.3 0.00 0.00 0.00 92 1014.8
20260508043603 8 349 4.8 11.3 0.00 0.00 0.00 92 1014.8
20260508043519 8 347 4.8 11.3 0.00 0.00 0.00 92 1014.7
20260508043504 8 347 4.8 11.3 0.00 0.00 0.00 92 1014.9
20260508043204 8 349 4.8 11.3 0.00 0.00 0.00 92 1014.8
20260508043103 8 350 4.8 11.3 0.00 0.00 0.00 92 1014.7
20260508043005 8 346 4.8 11.3 0.00 0.00 0.00 92 1014.7
20260508042919 8 344 4.8 11.3 0.00 0.00 0.00 92 1014.7
20260508042903 8 345 4.8 11.3 0.00 0.00 0.00 92 1014.7
20260508042804 8 347 4.8 11.3 0.00 0.00 0.00 92 1014.7
20260508042603 8 344 4.8 12.9 0.00 0.00 0.00 92 1014.6
20260508042503 8 342 4.8 12.9 0.00 0.00 0.00 92 1014.6
20260508042403 8 341 4.8 12.9 0.00 0.00 0.00 92 1014.6
20260508042306 8 340 4.8 12.9 0.00 0.00 0.00 92 1014.7
20260508042204 8 340 4.8 12.9 0.00 0.00 0.00 92 1014.7
20260508042103 8 338 4.8 12.9 0.00 0.00 0.00 92 1014.7
20260508042004 8 335 4.8 12.9 0.00 0.00 0.00 92 1014.6
20260508041916 8 335 4.8 12.9 0.00 0.00 0.00 92 1014.8
20260508041904 8 334 4.8 12.9 0.00 0.00 0.00 92 1014.8
20260508041804 8 332 4.8 12.9 0.00 0.00 0.00 92 1014.6
20260508041604 8 333 4.8 12.9 0.00 0.00 0.00 92 1014.7
20260508041505 8 337 4.8 12.9 0.00 0.00 0.00 92 1014.6
20260508041404 8 337 4.8 12.9 0.00 0.00 0.00 92 1014.6
20260508041304 8 333 4.8 9.7 0.00 0.00 0.00 92 1014.6
20260508041204 8 335 4.8 9.7 0.00 0.00 0.00 92 1014.7
20260508041104 8 337 4.8 9.7 0.00 0.00 0.00 92 1014.6
20260508041003 8 346 3.2 9.7 0.00 0.00 0.00 92 1014.6
20260508040904 8 351 3.2 9.7 0.00 0.00 0.00 92 1014.6
20260508040803 8 352 4.8 9.7 0.00 0.00 0.00 92 1014.7
20260508040704 8 353 4.8 9.7 0.00 0.00 0.00 92 1014.5
20260508040604 8 357 4.8 9.7 0.00 0.00 0.00 92 1014.3
20260508040521 8 356 4.8 9.7 0.00 0.00 0.00 92 1014.5
20260508040503 8 355 3.2 9.7 0.00 0.00 0.00 92 1014.6
20260508040404 8 357 3.2 11.3 0.00 0.00 0.00 92 1014.6
20260508040205 8 357 4.8 11.3 0.00 0.00 0.00 92 1014.6
20260508040103 8 358 4.8 11.3 0.00 0.00 0.00 92 1014.6
20260508040005 8 358 4.8 12.9 0.00 0.00 0.00 92 1014.3
20260508035904 8 355 4.8 12.9 0.00 0.00 0.00 92 1014.5
20260508035804 8 355 4.8 12.9 0.00 0.00 0.00 92 1014.5
20260508035717 8 355 4.8 12.9 0.00 0.00 0.00 92 1014.6
20260508035704 8 357 4.8 12.9 0.00 0.00 0.00 92 1014.3
20260508035604 8 356 4.8 12.9 0.00 0.00 0.00 92 1014.3
20260508035519 8 354 4.8 12.9 0.00 0.00 0.00 92 1014.6
20260508035403 8 356 4.8 12.9 0.00 0.00 0.00 92 1014.6
20260508035204 8 359 4.8 12.9 0.00 0.00 0.00 92 1014.7
20260508035104 8 358 4.8 12.9 0.00 0.00 0.00 92 1014.6
20260508035003 8 353 4.8 12.9 0.00 0.00 0.00 92 1014.6
20260508034904 8 354 4.8 14.5 0.00 0.00 0.00 92 1014.6
20260508034803 8 355 6.4 14.5 0.00 0.00 0.00 92 1014.5
20260508034703 8 354 6.4 14.5 0.00 0.00 0.00 92 1014.3
20260508034605 8 353 6.4 14.5 0.00 0.00 0.00 92 1014.3
20260508034504 8 353 6.4 14.5 0.00 0.00 0.00 92 1014.5
20260508034403 8 354 6.4 16.1 0.00 0.00 0.00 92 1014.5
20260508034304 8 354 6.4 16.1 0.00 0.00 0.00 92 1014.7
20260508034216 8 356 6.4 16.1 0.00 0.00 0.00 92 1014.6
20260508034205 8 357 6.4 16.1 0.00 0.00 0.00 92 1014.6
20260508034103 8 357 6.4 16.1 0.00 0.00 0.00 92 1014.6
20260508033904 8 359 6.4 16.1 0.00 0.00 0.00 92 1014.7
20260508033804 8 359 6.4 16.1 0.00 0.00 0.00 92 1014.7
20260508033703 8 360 6.4 16.1 0.00 0.00 0.00 92 1014.5
20260508033605 8 1 6.4 16.1 0.00 0.00 0.00 92 1014.6
20260508033504 8 4 6.4 16.1 0.00 0.00 0.00 91 1014.3
20260508033405 8 5 6.4 16.1 0.00 0.00 0.00 92 1014.5
20260508033304 8 360 6.4 16.1 0.00 0.00 0.00 91 1014.6
20260508033203 8 359 4.8 16.1 0.00 0.00 0.00 92 1014.6
20260508033105 8 1 4.8 14.5 0.00 0.00 0.00 92 1014.6
20260508033005 8 2 4.8 14.5 0.00 0.00 0.00 92 1014.3
20260508032904 8 356 4.8 14.5 0.00 0.00 0.00 92 1014.5
20260508032804 8 357 6.4 14.5 0.00 0.00 0.00 91 1014.3
20260508032704 8 354 4.8 14.5 0.00 0.00 0.00 91 1014.3
20260508032618 8 352 6.4 14.5 0.00 0.00 0.00 91 1014.3
20260508032603 8 352 4.8 14.5 0.00 0.00 0.00 91 1014.3
20260508032504 8 353 4.8 14.5 0.00 0.00 0.00 91 1014.5
20260508032306 8 354 4.8 14.5 0.00 0.00 0.00 91 1014.2
20260508032216 8 354 4.8 14.5 0.00 0.00 0.00 91 1014.3
20260508032204 8 353 4.8 14.5 0.00 0.00 0.00 91 1014.3
20260508032104 8 353 4.8 12.9 0.00 0.00 0.00 91 1014.5
20260508031903 8 356 4.8 12.9 0.00 0.00 0.00 91 1014.3
20260508031810 8 356 4.8 12.9 0.00 0.00 0.00 91 1014.3
20260508031703 8 356 4.8 12.9 0.00 0.00 0.00 91 1014.3
20260508031603 8 355 4.8 12.9 0.00 0.00 0.00 91 1014.3
20260508031503 8 350 6.4 12.9 0.00 0.00 0.00 91 1014.3
20260508031403 8 348 6.4 12.9 0.00 0.00 0.00 91 1014.5
20260508031305 8 348 6.4 12.9 0.00 0.00 0.00 91 1014.3
20260508031205 8 347 6.4 12.9 0.00 0.00 0.00 91 1014.3
20260508031103 8 341 6.4 12.9 0.00 0.00 0.00 91 1014.5
20260508031004 8 337 6.4 12.9 0.00 0.00 0.00 91 1014.5
20260508030904 8 335 6.4 12.9 0.00 0.00 0.00 91 1014.5
20260508030816 8 331 6.4 12.9 0.00 0.00 0.00 91 1014.5
20260508030703 8 331 6.4 12.9 0.00 0.00 0.00 91 1014.2
20260508030618 8 331 6.4 12.9 0.00 0.00 0.00 91 1014.2
20260508030516 8 335 4.8 12.9 0.00 0.00 0.00 91 1014.2
20260508030503 8 336 4.8 12.9 0.00 0.00 0.00 91 1014.3
20260508030419 8 341 4.8 12.9 0.00 0.00 0.00 91 1014.3
20260508030220 8 345 4.8 12.9 0.00 0.00 0.00 91 1014.2
20260508030103 8 347 4.8 12.9 0.00 0.00 0.00 91 1014.5
20260508025904 8 355 4.8 12.9 0.00 0.00 0.00 91 1014.3
20260508025803 8 357 4.8 12.9 0.00 0.00 0.00 91 1014.3
20260508025705 8 355 4.8 12.9 0.00 0.00 0.00 91 1014.6
20260508025603 8 352 4.8 12.9 0.00 0.00 0.00 91 1014.2
20260508025504 8 349 4.8 12.9 0.00 0.00 0.00 92 1014.3
20260508025405 8 343 4.8 12.9 0.00 0.00 0.00 92 1014.3
20260508025306 8 343 4.8 12.9 0.00 0.00 0.00 92 1014.3
20260508025204 8 340 4.8 12.9 0.00 0.00 0.00 92 1014.3
20260508025104 8 342 4.8 12.9 0.00 0.00 0.00 92 1014.3
20260508025003 8 339 4.8 12.9 0.00 0.00 0.00 92 1014.3
20260508024904 8 338 4.8 12.9 0.00 0.00 0.00 92 1014.3
20260508024803 8 336 6.4 12.9 0.00 0.00 0.00 92 1014.2
20260508024703 8 339 6.4 12.9 0.00 0.00 0.00 92 1014.3
20260508024604 8 340 6.4 12.9 0.00 0.00 0.00 91 1014.3
20260508024520 8 340 6.4 12.9 0.00 0.00 0.00 91 1014.3
20260508024503 8 342 6.4 12.9 0.00 0.00 0.00 92 1014.3
20260508024205 8 343 6.4 12.9 0.00 0.00 0.00 91 1014.2
20260508024103 8 343 6.4 12.9 0.00 0.00 0.00 91 1014.2
20260508024005 8 347 6.4 12.9 0.00 0.00 0.00 91 1014.2
20260508023903 8 346 6.4 16.1 0.00 0.00 0.00 91 1014.2
20260508023803 8 349 6.4 16.1 0.00 0.00 0.00 91 1014.1
20260508023703 8 347 6.4 16.1 0.00 0.00 0.00 91 1014.0
20260508023604 8 346 6.4 16.1 0.00 0.00 0.00 91 1014.0
20260508023505 8 344 6.4 16.1 0.00 0.00 0.00 91 1014.1
20260508023403 8 345 6.4 16.1 0.00 0.00 0.00 91 1014.1
20260508023319 8 344 6.4 16.1 0.00 0.00 0.00 91 1014.1
20260508023303 8 344 4.8 16.1 0.00 0.00 0.00 91 1014.2
20260508023203 8 342 4.8 16.1 0.00 0.00 0.00 91 1014.2
20260508023003 8 341 4.8 16.1 0.00 0.00 0.00 91 1014.1
20260508022904 8 340 4.8 16.1 0.00 0.00 0.00 91 1014.1
20260508022803 8 341 4.8 16.1 0.00 0.00 0.00 91 1014.0
20260508022704 8 343 3.2 9.7 0.00 0.00 0.00 91 1014.0
20260508022617 8 346 3.2 9.7 0.00 0.00 0.00 91 1014.1
20260508022604 8 347 3.2 9.7 0.00 0.00 0.00 91 1014.1
20260508022503 8 350 3.2 9.7 0.00 0.00 0.00 91 1014.1
20260508022307 8 352 3.2 9.7 0.00 0.00 0.00 91 1013.9
20260508022220 8 352 3.2 11.3 0.00 0.00 0.00 91 1014.0
20260508022204 8 353 3.2 11.3 0.00 0.00 0.00 91 1014.0
20260508022103 8 355 3.2 12.9 0.00 0.00 0.00 91 1014.0
20260508021903 8 357 3.2 12.9 0.00 0.00 0.00 91 1014.0
20260508021804 8 354 3.2 12.9 0.00 0.00 0.00 91 1014.0
20260508021704 8 356 4.8 12.9 0.00 0.00 0.00 91 1014.0
20260508021604 8 354 4.8 12.9 0.00 0.00 0.00 91 1014.1
20260508021503 8 352 4.8 12.9 0.00 0.00 0.00 91 1014.1
20260508021403 8 353 6.4 12.9 0.00 0.00 0.00 90 1014.1
20260508021304 8 352 6.4 12.9 0.00 0.00 0.00 91 1014.0
20260508021204 8 353 6.4 12.9 0.00 0.00 0.00 91 1014.0
20260508021103 8 353 6.4 16.1 0.00 0.00 0.00 91 1013.9
20260508021004 8 351 6.4 16.1 0.00 0.00 0.00 91 1013.9
20260508020904 8 349 4.8 16.1 0.00 0.00 0.00 91 1014.0
20260508020803 8 351 4.8 16.1 0.00 0.00 0.00 91 1014.0
20260508020705 8 349 4.8 16.1 0.00 0.00 0.00 91 1013.8
20260508020604 8 351 4.8 16.1 0.00 0.00 0.00 91 1014.1
20260508020504 8 353 4.8 16.1 0.00 0.00 0.00 91 1014.1
20260508020403 8 353 4.8 16.1 0.00 0.00 0.00 91 1014.1
20260508020304 8 353 4.8 16.1 0.00 0.00 0.00 90 1014.1
20260508020220 8 355 6.4 16.1 0.00 0.00 0.00 90 1013.8
20260508020205 8 356 6.4 16.1 0.00 0.00 0.00 90 1013.8
20260508020105 8 357 6.4 16.1 0.00 0.00 0.00 90 1013.8
20260508015904 8 360 6.4 14.5 0.00 0.00 0.00 90 1014.0
20260508015804 8 359 6.4 14.5 0.00 0.00 0.00 90 1013.9
20260508015716 8 358 4.8 12.9 0.00 0.00 0.00 90 1013.9
20260508015703 8 359 4.8 12.9 0.00 0.00 0.00 90 1013.9
20260508015619 8 358 4.8 12.9 0.00 0.00 0.00 90 1013.9
20260508015603 8 357 4.8 12.9 0.00 0.00 0.00 90 1013.9
20260508015306 8 1 4.8 12.9 0.00 0.00 0.00 90 1013.8
20260508015205 8 357 4.8 12.9 0.00 0.00 0.00 90 1014.0
20260508015103 8 356 4.8 12.9 0.00 0.00 0.00 90 1013.8
20260508015005 8 357 3.2 11.3 0.00 0.00 0.00 90 1014.1
20260508014803 8 358 3.2 9.7 0.00 0.00 0.00 90 1014.0
20260508014705 8 360 3.2 9.7 0.00 0.00 0.00 90 1014.0
20260508014604 8 2 3.2 9.7 0.00 0.00 0.00 90 1014.1
20260508014404 8 7 1.6 11.3 0.00 0.00 0.00 90 1013.9
20260508014304 8 9 1.6 11.3 0.00 0.00 0.00 90 1013.9
20260508014204 8 14 1.6 11.3 0.00 0.00 0.00 90 1014.0
20260508014103 8 16 1.6 11.3 0.00 0.00 0.00 90 1014.0
20260508014003 8 16 3.2 11.3 0.00 0.00 0.00 90 1014.2
20260508013903 8 15 3.2 11.3 0.00 0.00 0.00 90 1014.2
20260508013804 8 13 3.2 11.3 0.00 0.00 0.00 90 1014.0
20260508013704 8 13 3.2 11.3 0.00 0.00 0.00 90 1014.0
20260508013604 8 13 3.2 11.3 0.00 0.00 0.00 90 1014.0
20260508013518 8 12 3.2 11.3 0.00 0.00 0.00 90 1014.2
20260508013503 8 13 3.2 11.3 0.00 0.00 0.00 90 1014.2
20260508013416 8 14 3.2 12.9 0.00 0.00 0.00 90 1014.0
20260508013403 8 13 3.2 12.9 0.00 0.00 0.00 90 1014.0
20260508013120 8 7 4.8 12.9 0.00 0.00 0.00 90 1014.1
20260508013103 8 6 4.8 12.9 0.00 0.00 0.00 90 1014.1
20260508013003 8 6 4.8 12.9 0.00 0.00 0.00 90 1014.1
20260508012803 8 7 4.8 12.9 0.00 0.00 0.00 90 1014.0
20260508012704 8 10 4.8 12.9 0.00 0.00 0.00 90 1014.0
20260508012604 8 14 4.8 16.1 0.00 0.00 0.00 90 1014.1
20260508012504 8 15 4.8 16.1 0.00 0.00 0.00 90 1014.2
20260508012403 8 14 4.8 16.1 0.00 0.00 0.00 90 1014.1
20260508012307 8 16 4.8 16.1 0.00 0.00 0.00 90 1014.3
20260508012204 8 13 4.8 16.1 0.00 0.00 0.00 90 1014.1
20260508012103 8 15 4.8 16.1 0.00 0.00 0.00 90 1014.2
20260508012004 8 13 4.8 16.1 0.00 0.00 0.00 90 1014.0
20260508011903 8 13 4.8 16.1 0.00 0.00 0.00 90 1014.2
20260508011803 8 12 4.8 16.1 0.00 0.00 0.00 90 1014.0
20260508011703 8 8 4.8 16.1 0.00 0.00 0.00 90 1014.0
20260508011603 8 2 4.8 16.1 0.00 0.00 0.00 90 1014.1
20260508011503 8 359 4.8 16.1 0.00 0.00 0.00 90 1014.1
20260508011404 8 355 4.8 16.1 0.00 0.00 0.00 90 1014.0
20260508011303 8 352 3.2 16.1 0.00 0.00 0.00 90 1014.1
20260508011204 8 347 3.2 16.1 0.00 0.00 0.00 90 1014.1
20260508011105 8 347 3.2 11.3 0.00 0.00 0.00 90 1014.1
20260508011004 8 347 3.2 11.3 0.00 0.00 0.00 90 1014.0
20260508010904 8 344 4.8 11.3 0.00 0.00 0.00 90 1014.2
20260508010803 8 340 4.8 11.3 0.00 0.00 0.00 90 1014.1
20260508010705 8 339 4.8 11.3 0.00 0.00 0.00 90 1014.2
20260508010603 8 338 4.8 14.5 0.00 0.00 0.00 90 1014.0
20260508010503 8 337 4.8 16.1 0.00 0.00 0.00 90 1014.3
20260508010404 8 337 6.4 16.1 0.00 0.00 0.00 90 1014.3
20260508010204 8 334 6.4 16.1 0.00 0.00 0.00 89 1014.1
20260508010103 8 332 6.4 16.1 0.00 0.00 0.00 89 1014.3
20260508005905 8 328 4.8 16.1 0.00 0.00 0.00 89 1014.2
20260508005803 8 330 4.8 16.1 0.00 0.00 0.00 89 1014.2
20260508005704 8 328 4.8 16.1 0.00 0.00 0.00 89 1014.3
20260508005619 8 330 4.8 16.1 0.00 0.00 0.00 89 1014.3
20260508005604 8 331 4.8 16.1 0.00 0.00 0.00 89 1014.3
20260508005504 8 331 4.8 16.1 0.00 0.00 0.00 89 1014.5
20260508005305 9 337 4.8 12.9 0.00 0.00 0.00 89 1014.3
20260508005204 9 338 4.8 12.9 0.00 0.00 0.00 89 1014.2
20260508005003 8 338 4.8 12.9 0.00 0.00 0.00 89 1014.3
20260508004905 8 338 4.8 12.9 0.00 0.00 0.00 89 1014.3
20260508004805 8 338 4.8 12.9 0.00 0.00 0.00 89 1014.3
20260508004703 8 338 4.8 12.9 0.00 0.00 0.00 88 1014.1
20260508004619 8 340 4.8 12.9 0.00 0.00 0.00 88 1014.1
20260508004604 8 341 4.8 12.9 0.00 0.00 0.00 88 1014.1
20260508004504 8 344 4.8 12.9 0.00 0.00 0.00 88 1014.5
20260508004313 9 341 4.8 12.9 0.00 0.00 0.00 88 1014.5
20260508004204 9 342 4.8 12.9 0.00 0.00 0.00 88 1014.1
20260508004103 8 343 4.8 12.9 0.00 0.00 0.00 89 1014.1
20260508004003 8 345 4.8 12.9 0.00 0.00 0.00 88 1014.1
20260508003904 8 344 4.8 12.9 0.00 0.00 0.00 89 1014.1
20260508003803 8 343 4.8 12.9 0.00 0.00 0.00 88 1014.3
20260508003704 8 342 6.4 12.9 0.00 0.00 0.00 88 1014.3
20260508003603 8 341 6.4 12.9 0.00 0.00 0.00 88 1014.5
20260508003504 8 338 4.8 12.9 0.00 0.00 0.00 88 1014.2
20260508003404 8 338 4.8 12.9 0.00 0.00 0.00 88 1014.1
20260508003304 9 340 4.8 12.9 0.00 0.00 0.00 88 1014.2
20260508003203 9 341 4.8 12.9 0.00 0.00 0.00 88 1014.2
20260508003103 8 341 4.8 14.5 0.00 0.00 0.00 88 1014.2
20260508003004 9 340 4.8 14.5 0.00 0.00 0.00 88 1014.2
20260508002904 8 340 4.8 14.5 0.00 0.00 0.00 88 1014.2
20260508002804 9 344 4.8 14.5 0.00 0.00 0.00 88 1014.1
20260508002704 8 343 4.8 14.5 0.00 0.00 0.00 88 1014.5
20260508002505 9 342 4.8 14.5 0.00 0.00 0.00 88 1014.2
20260508002403 9 346 4.8 14.5 0.00 0.00 0.00 88 1014.2
20260508002307 8 345 6.4 14.5 0.00 0.00 0.00 88 1014.2
20260508002204 9 345 6.4 14.5 0.00 0.00 0.00 88 1014.2
20260508002103 9 343 4.8 14.5 0.00 0.00 0.00 88 1014.1
20260508002005 9 345 4.8 14.5 0.00 0.00 0.00 88 1014.1
20260508001903 8 348 4.8 12.9 0.00 0.00 0.00 88 1014.1
20260508001803 8 348 3.2 12.9 0.00 0.00 0.00 88 1014.2
20260508001705 8 352 3.2 11.3 0.00 0.00 0.00 88 1014.1
20260508001604 8 355 3.2 11.3 0.00 0.00 0.00 88 1014.3
20260508001503 8 356 3.2 11.3 0.00 0.00 0.00 88 1014.2
20260508001403 8 351 3.2 11.3 0.00 0.00 0.00 88 1014.2
20260508001303 8 349 1.6 11.3 0.00 0.00 0.00 89 1014.2
20260508001103 8 2 1.6 11.3 0.00 0.00 0.00 89 1014.1
20260508001003 8 3 1.6 6.4 0.00 0.00 0.00 89 1014.2
20260508000804 8 1 1.6 6.4 0.00 0.00 0.00 89 1014.3
20260508000705 8 2 1.6 6.4 0.00 0.00 0.00 89 1014.1
20260508000603 8 4 1.6 6.4 0.00 0.00 0.00 89 1014.1
20260508000505 8 6 1.6 6.4 0.00 0.00 0.00 89 1014.1
20260508000405 8 10 1.6 6.4 0.00 0.00 0.00 89 1014.2
20260508000305 8 20 1.6 6.4 0.00 0.00 0.00 88 1014.1
20260508000205 8 28 1.6 6.4 0.00 0.00 0.00 88 1014.1
20260508000118 8 28 1.6 6.4 0.00 0.00 0.00 88 1014.2
20260508000105 8 28 1.6 6.4 0.00 0.00 0.00 88 1014.0
20260508000020 8 33 1.6 6.4 0.00 0.00 0.00 88 1014.0
20260508000005 8 34 1.6 6.4 0.00 0.00 0.00 88 1014.0
20260507235919 8 43 1.6 11.3 0.00 0.00 0.00 89 1014.2
20260507235603 8 30 3.2 11.3 0.00 0.00 0.00 89 1014.2
20260507235503 8 25 3.2 11.3 0.00 0.00 0.00 89 1014.3
20260507235403 8 17 3.2 11.3 0.00 0.00 0.00 89 1014.1
20260507235306 8 6 3.2 11.3 0.00 0.00 0.00 89 1014.2
20260507235219 8 1 3.2 11.3 0.00 0.00 0.00 89 1013.9
20260507235104 9 359 4.8 11.3 0.00 0.00 0.00 89 1014.0
20260507235003 8 354 4.8 11.3 0.00 0.00 0.00 89 1014.0
20260507234904 8 345 4.8 11.3 0.00 0.00 0.00 89 1014.0
20260507234803 8 343 4.8 11.3 0.00 0.00 0.00 89 1014.0
20260507234705 8 342 4.8 11.3 0.00 0.00 0.00 89 1013.9
20260507234603 8 342 4.8 11.3 0.00 0.00 0.00 89 1014.2
20260507234504 8 339 4.8 11.3 0.00 0.00 0.00 89 1014.0
20260507234403 8 337 4.8 11.3 0.00 0.00 0.00 89 1014.1
20260507234303 8 337 4.8 11.3 0.00 0.00 0.00 89 1014.1
20260507234204 8 336 4.8 11.3 0.00 0.00 0.00 89 1014.2
20260507234103 9 335 4.8 11.3 0.00 0.00 0.00 89 1014.2
20260507234003 9 337 4.8 12.9 0.00 0.00 0.00 89 1014.2
20260507233903 9 340 4.8 12.9 0.00 0.00 0.00 89 1014.2
20260507233804 8 342 4.8 12.9 0.00 0.00 0.00 89 1014.1
20260507233704 9 338 4.8 12.9 0.00 0.00 0.00 88 1014.2
20260507233504 9 338 4.8 12.9 0.00 0.00 0.00 89 1014.3
20260507233403 8 341 4.8 12.9 0.00 0.00 0.00 88 1014.5
20260507233303 9 342 4.8 12.9 0.00 0.00 0.00 88 1014.2
20260507233205 9 343 4.8 12.9 0.00 0.00 0.00 88 1014.3
20260507233104 9 340 4.8 12.9 0.00 0.00 0.00 88 1014.3
20260507233003 9 339 4.8 12.9 0.00 0.00 0.00 88 1014.2
20260507232903 9 338 4.8 9.7 0.00 0.00 0.00 88 1014.2
20260507232805 8 338 4.8 9.7 0.00 0.00 0.00 88 1014.0
20260507232704 9 339 4.8 9.7 0.00 0.00 0.00 88 1014.1
20260507232503 9 340 4.8 9.7 0.00 0.00 0.00 88 1014.0
20260507232404 9 338 4.8 14.5 0.00 0.00 0.00 88 1014.2
20260507232306 8 339 4.8 14.5 0.00 0.00 0.00 88 1014.1
20260507232204 8 340 4.8 14.5 0.00 0.00 0.00 88 1014.1
20260507232103 8 341 4.8 14.5 0.00 0.00 0.00 88 1014.2
20260507232005 9 342 4.8 14.5 0.00 0.00 0.00 88 1014.2
20260507231903 9 340 4.8 14.5 0.00 0.00 0.00 88 1014.0
20260507231804 9 339 4.8 14.5 0.00 0.00 0.00 88 1014.0
20260507231703 9 338 4.8 14.5 0.00 0.00 0.00 88 1014.2
20260507231603 9 337 4.8 14.5 0.00 0.00 0.00 88 1014.2
20260507231504 9 341 4.8 14.5 0.00 0.00 0.00 88 1014.3
20260507231420 9 342 4.8 14.5 0.00 0.00 0.00 88 1014.3
20260507231403 9 341 4.8 14.5 0.00 0.00 0.00 88 1014.3
20260507231304 9 341 3.2 11.3 0.00 0.00 0.00 88 1014.1
20260507231103 9 342 3.2 11.3 0.00 0.00 0.00 88 1014.3
20260507231004 9 342 4.8 11.3 0.00 0.00 0.00 88 1014.2
20260507230904 9 340 4.8 11.3 0.00 0.00 0.00 88 1014.1
20260507230803 9 340 4.8 11.3 0.00 0.00 0.00 88 1014.3
20260507230704 9 339 4.8 11.3 0.00 0.00 0.00 88 1014.3
20260507230604 9 337 4.8 11.3 0.00 0.00 0.00 88 1014.2
20260507230519 9 335 4.8 11.3 0.00 0.00 0.00 88 1014.2
20260507230505 9 334 4.8 11.3 0.00 0.00 0.00 88 1014.2
20260507230404 9 335 6.4 11.3 0.00 0.00 0.00 88 1014.2
20260507230203 9 333 6.4 11.3 0.00 0.00 0.00 88 1014.3
20260507230004 9 334 4.8 11.3 0.00 0.00 0.00 88 1014.1
20260507225904 9 339 4.8 9.7 0.00 0.00 0.00 87 1014.1
20260507225705 9 342 4.8 14.5 0.00 0.00 0.00 87 1014.1
20260507225603 9 342 4.8 14.5 0.00 0.00 0.00 87 1014.2
20260507225405 9 345 4.8 14.5 0.00 0.00 0.00 87 1014.3
20260507225306 9 342 4.8 14.5 0.00 0.00 0.00 87 1014.5
20260507225216 9 342 4.8 14.5 0.00 0.00 0.00 88 1014.1
20260507225104 9 341 4.8 14.5 0.00 0.00 0.00 87 1014.2
20260507225004 9 341 4.8 14.5 0.00 0.00 0.00 87 1014.3
20260507224903 9 337 4.8 14.5 0.00 0.00 0.00 87 1014.6
20260507224803 9 336 4.8 14.5 0.00 0.00 0.00 87 1014.2
20260507224705 9 332 4.8 14.5 0.00 0.00 0.00 87 1014.2
20260507224604 9 329 4.8 14.5 0.00 0.00 0.00 87 1014.3
20260507224505 9 326 4.8 9.7 0.00 0.00 0.00 87 1014.2
20260507224404 9 325 3.2 9.7 0.00 0.00 0.00 87 1014.1
20260507224205 9 333 3.2 9.7 0.00 0.00 0.00 87 1014.3
20260507224103 9 332 3.2 9.7 0.00 0.00 0.00 87 1014.3
20260507224004 9 331 3.2 9.7 0.00 0.00 0.00 87 1014.3
20260507223916 9 329 3.2 9.7 0.00 0.00 0.00 87 1014.2
20260507223804 9 328 4.8 9.7 0.00 0.00 0.00 87 1014.1
20260507223704 9 328 4.8 9.7 0.00 0.00 0.00 87 1014.0
20260507223603 9 334 3.2 11.3 0.00 0.00 0.00 88 1014.1
20260507223504 9 337 3.2 11.3 0.00 0.00 0.00 88 1014.1
20260507223403 9 336 4.8 11.3 0.00 0.00 0.00 88 1014.2
20260507223303 9 332 4.8 11.3 0.00 0.00 0.00 88 1014.0
20260507223205 9 332 4.8 11.3 0.00 0.00 0.00 88 1014.0
20260507223118 9 333 4.8 11.3 0.00 0.00 0.00 87 1014.1
20260507223103 9 334 4.8 11.3 0.00 0.00 0.00 87 1014.2
20260507222803 9 342 4.8 12.9 0.00 0.00 0.00 87 1014.0
20260507222704 9 346 4.8 12.9 0.00 0.00 0.00 87 1014.0
20260507222603 9 345 4.8 12.9 0.00 0.00 0.00 87 1014.0
20260507222404 9 345 4.8 12.9 0.00 0.00 0.00 87 1013.9
20260507222306 9 346 4.8 12.9 0.00 0.00 0.00 87 1014.0
20260507222204 9 343 4.8 12.9 0.00 0.00 0.00 87 1014.0
20260507222103 9 339 4.8 12.9 0.00 0.00 0.00 87 1014.0
20260507222003 9 334 4.8 12.9 0.00 0.00 0.00 87 1014.1
20260507221905 9 328 4.8 12.9 0.00 0.00 0.00 87 1014.0
20260507221804 9 328 4.8 12.9 0.00 0.00 0.00 87 1014.0
20260507221703 9 326 4.8 12.9 0.00 0.00 0.00 87 1013.9
20260507221604 9 325 6.4 12.9 0.00 0.00 0.00 87 1013.9
20260507221520 9 322 6.4 12.9 0.00 0.00 0.00 87 1014.0
20260507221504 9 320 6.4 12.9 0.00 0.00 0.00 87 1014.0
20260507221403 9 319 6.4 12.9 0.00 0.00 0.00 87 1013.9
20260507221203 9 319 6.4 12.9 0.00 0.00 0.00 87 1014.3
20260507221104 9 321 6.4 12.9 0.00 0.00 0.00 87 1014.1
20260507221004 9 322 4.8 12.9 0.00 0.00 0.00 87 1014.2
20260507220903 9 325 4.8 12.9 0.00 0.00 0.00 87 1014.1
20260507220818 9 326 4.8 12.9 0.00 0.00 0.00 87 1014.3
20260507220704 9 328 4.8 16.1 0.00 0.00 0.00 87 1014.1
20260507220504 9 333 6.4 16.1 0.00 0.00 0.00 87 1014.1
20260507220403 9 335 4.8 16.1 0.00 0.00 0.00 86 1014.2
20260507220305 9 335 4.8 16.1 0.00 0.00 0.00 86 1014.2
20260507220203 9 336 4.8 16.1 0.00 0.00 0.00 87 1014.2
20260507220005 9 337 4.8 16.1 0.00 0.00 0.00 87 1014.1
20260507215903 9 337 4.8 16.1 0.00 0.00 0.00 87 1014.1
20260507215804 9 338 4.8 16.1 0.00 0.00 0.00 87 1014.1
20260507215705 9 339 4.8 16.1 0.00 0.00 0.00 87 1014.1
20260507215604 9 343 4.8 12.9 0.00 0.00 0.00 87 1014.1
20260507215503 9 342 4.8 12.9 0.00 0.00 0.00 87 1014.0
20260507215403 9 344 4.8 12.9 0.00 0.00 0.00 87 1014.0
20260507215306 9 346 4.8 12.9 0.00 0.00 0.00 87 1014.1
20260507215208 9 346 4.8 12.9 0.00 0.00 0.00 87 1014.1
20260507215103 9 346 4.8 12.9 0.00 0.00 0.00 87 1014.1
20260507214920 8 350 6.4 16.1 0.00 0.00 0.00 87 1014.0
20260507214903 8 351 6.4 16.1 0.00 0.00 0.00 87 1014.1
20260507214804 9 353 6.4 20.9 0.00 0.00 0.00 87 1014.1
20260507214603 9 353 6.4 20.9 0.00 0.00 0.00 88 1013.9
20260507214505 9 354 6.4 20.9 0.00 0.00 0.00 88 1013.8
20260507214403 9 355 6.4 20.9 0.00 0.00 0.00 88 1013.8
20260507214303 9 353 6.4 20.9 0.00 0.00 0.00 88 1013.9
20260507214204 9 353 6.4 20.9 0.00 0.00 0.00 88 1013.9
20260507214104 9 355 6.4 20.9 0.00 0.00 0.00 88 1013.9
20260507214003 9 352 6.4 20.9 0.00 0.00 0.00 88 1014.0
20260507213905 9 351 6.4 20.9 0.00 0.00 0.00 88 1014.0
20260507213704 9 346 6.4 20.9 0.00 0.00 0.00 88 1013.9
20260507213605 9 343 6.4 14.5 0.00 0.00 0.00 88 1014.0
20260507213516 9 345 6.4 14.5 0.00 0.00 0.00 88 1014.0
20260507213503 9 343 6.4 14.5 0.00 0.00 0.00 88 1014.0
20260507213403 9 339 6.4 16.1 0.00 0.00 0.00 88 1013.9
20260507213205 9 342 6.4 16.1 0.00 0.00 0.00 88 1014.0
20260507213118 9 340 8.0 17.7 0.00 0.00 0.00 88 1014.0
20260507213105 9 339 8.0 17.7 0.00 0.00 0.00 88 1014.0
20260507213017 9 340 8.0 17.7 0.00 0.00 0.00 88 1014.0
20260507213003 9 341 8.0 17.7 0.00 0.00 0.00 88 1014.0
20260507212705 9 341 8.0 20.9 0.00 0.00 0.00 88 1013.9
20260507212603 9 343 8.0 20.9 0.00 0.00 0.00 88 1014.0
20260507212504 9 344 8.0 20.9 0.00 0.00 0.00 88 1014.0
20260507212403 9 346 8.0 20.9 0.00 0.00 0.00 88 1013.9
20260507212307 9 343 8.0 20.9 0.00 0.00 0.00 88 1013.9
20260507212218 9 343 8.0 20.9 0.00 0.00 0.00 88 1013.8
20260507212205 9 343 8.0 20.9 0.00 0.00 0.00 88 1013.9
20260507212103 9 343 8.0 20.9 0.00 0.00 0.00 88 1013.9
20260507211905 9 341 8.0 20.9 0.00 0.00 0.00 88 1013.9
20260507211804 9 338 8.0 20.9 0.00 0.00 0.00 88 1013.8
20260507211605 9 334 8.0 16.1 0.00 0.00 0.00 87 1013.8
20260507211503 9 331 8.0 17.7 0.00 0.00 0.00 87 1013.8
20260507211405 9 333 8.0 17.7 0.00 0.00 0.00 87 1013.8
20260507211305 9 330 8.0 17.7 0.00 0.00 0.00 87 1013.9
20260507211203 9 328 8.0 17.7 0.00 0.00 0.00 87 1013.8
20260507211105 9 329 8.0 17.7 0.00 0.00 0.00 87 1014.0
20260507211003 10 326 8.0 17.7 0.00 0.00 0.00 87 1013.8
20260507210903 10 330 8.0 17.7 0.00 0.00 0.00 87 1013.9
20260507210804 10 330 8.0 17.7 0.00 0.00 0.00 87 1013.9
20260507210705 10 331 6.4 17.7 0.00 0.00 0.00 87 1013.8
20260507210620 10 330 8.0 17.7 0.00 0.00 0.00 87 1013.8
20260507210504 9 333 8.0 17.7 0.00 0.00 0.00 87 1013.6
20260507210304 10 331 6.4 14.5 0.00 0.00 0.00 87 1013.7
20260507210205 10 329 4.8 12.9 0.00 0.00 0.00 87 1013.7
20260507210105 10 328 4.8 14.5 0.00 0.00 0.00 87 1013.7
20260507210003 10 333 4.8 14.5 0.00 0.00 0.00 87 1013.8
20260507205903 10 334 4.8 14.5 0.00 0.00 0.00 87 1013.8
20260507205803 10 338 4.8 14.5 0.00 0.00 0.00 87 1013.7
20260507205703 10 340 4.8 14.5 0.00 0.00 0.00 87 1013.7
20260507205520 10 340 4.8 14.5 0.00 0.00 0.00 87 1013.7
20260507205505 10 339 4.8 14.5 0.00 0.00 0.00 87 1013.7
20260507205403 10 340 4.8 14.5 0.00 0.00 0.00 87 1013.5
20260507205220 10 347 4.8 14.5 0.00 0.00 0.00 87 1013.6
20260507205204 10 349 4.8 14.5 0.00 0.00 0.00 86 1013.5
20260507205103 10 352 4.8 14.5 0.00 0.00 0.00 86 1013.5
20260507204904 10 347 4.8 11.3 0.00 0.00 0.00 86 1013.6
20260507204805 10 346 4.8 11.3 0.00 0.00 0.00 86 1013.4
20260507204705 10 344 4.8 11.3 0.00 0.00 0.00 86 1013.6
20260507204619 10 346 4.8 11.3 0.00 0.00 0.00 86 1013.6
20260507204604 10 347 4.8 11.3 0.00 0.00 0.00 86 1013.6
20260507204503 10 348 4.8 11.3 0.00 0.00 0.00 86 1013.5
20260507204303 10 344 4.8 11.3 0.00 0.00 0.00 86 1013.5
20260507204205 10 345 4.8 11.3 0.00 0.00 0.00 86 1013.6
20260507204103 10 343 4.8 11.3 0.00 0.00 0.00 85 1013.5
20260507204003 10 346 4.8 11.3 0.00 0.00 0.00 85 1013.6
20260507203903 10 344 4.8 11.3 0.00 0.00 0.00 85 1013.5
20260507203703 10 348 4.8 14.5 0.00 0.00 0.00 85 1013.7
20260507203604 10 350 4.8 14.5 0.00 0.00 0.00 85 1013.7
20260507203520 10 349 4.8 14.5 0.00 0.00 0.00 85 1013.7
20260507203504 10 348 4.8 14.5 0.00 0.00 0.00 85 1013.6
20260507203408 10 348 4.8 14.5 0.00 0.00 0.00 85 1013.6
20260507203205 10 351 4.8 14.5 0.00 0.00 0.00 85 1013.8
20260507203103 10 350 4.8 14.5 0.00 0.00 0.00 85 1013.8
20260507203005 10 348 4.8 14.5 0.00 0.00 0.00 85 1013.8
20260507202903 10 353 4.8 14.5 0.00 0.00 0.00 85 1013.7
20260507202805 10 354 4.8 14.5 0.00 0.00 0.00 85 1013.7
20260507202703 10 354 6.4 14.5 0.00 0.00 0.00 85 1013.7
20260507202604 10 351 4.8 17.7 0.00 0.00 0.00 85 1013.7
20260507202503 10 354 6.4 17.7 0.00 0.00 0.00 86 1013.7
20260507202404 10 353 6.4 17.7 0.00 0.00 0.00 86 1013.7
20260507202306 10 353 6.4 17.7 0.00 0.00 0.00 86 1013.6
20260507202203 10 352 6.4 17.7 0.00 0.00 0.00 85 1013.6
20260507202103 10 353 6.4 17.7 0.00 0.00 0.00 85 1013.6
20260507202004 10 354 6.4 17.7 0.00 0.00 0.00 85 1013.6
20260507201903 10 351 6.4 17.7 0.00 0.00 0.00 85 1013.4
20260507201820 10 348 6.4 17.7 0.00 0.00 0.00 85 1013.4
20260507201804 10 347 6.4 17.7 0.00 0.00 0.00 85 1013.4
20260507201703 10 348 6.4 17.7 0.00 0.00 0.00 85 1013.5
20260507201504 10 349 6.4 14.5 0.00 0.00 0.00 86 1013.4
20260507201419 10 350 4.8 12.9 0.00 0.00 0.00 86 1013.4
20260507201405 10 351 4.8 12.9 0.00 0.00 0.00 86 1013.4
20260507201303 10 351 6.4 12.9 0.00 0.00 0.00 86 1013.4
20260507201104 10 357 4.8 12.9 0.00 0.00 0.00 86 1013.5
20260507201005 10 356 4.8 12.9 0.00 0.00 0.00 86 1013.5
20260507200905 10 357 4.8 12.9 0.00 0.00 0.00 86 1013.4
20260507200804 10 356 4.8 12.9 0.00 0.00 0.00 86 1013.4
20260507200704 10 354 4.8 12.9 0.00 0.00 0.00 86 1013.3
20260507200605 10 353 4.8 12.9 0.00 0.00 0.00 86 1013.3
20260507200505 10 350 4.8 11.3 0.00 0.00 0.00 86 1013.3
20260507200405 10 346 4.8 11.3 0.00 0.00 0.00 86 1013.3
20260507200305 10 341 4.8 11.3 0.00 0.00 0.00 86 1013.3
20260507200203 10 338 4.8 11.3 0.00 0.00 0.00 86 1013.2
20260507200105 10 330 4.8 11.3 0.00 0.00 0.00 86 1013.6
20260507200005 10 328 4.8 11.3 0.00 0.00 0.00 86 1013.1
20260507195903 10 322 4.8 14.5 0.00 0.00 0.00 86 1013.1
20260507195804 10 323 6.4 14.5 0.00 0.00 0.00 86 1013.1
20260507195703 10 322 6.4 14.5 0.00 0.00 0.00 86 1013.1
20260507195604 10 320 6.4 14.5 0.00 0.00 0.00 86 1013.1
20260507195520 10 320 6.4 14.5 0.00 0.00 0.00 86 1013.3
20260507195503 10 320 6.4 14.5 0.00 0.00 0.00 86 1013.4
20260507195403 10 318 6.4 14.5 0.00 0.00 0.00 86 1013.4
20260507195204 10 318 6.4 14.5 0.00 0.00 0.00 86 1013.0
20260507195118 10 320 6.4 14.5 0.00 0.00 0.00 85 1013.1
20260507195103 10 321 6.4 14.5 0.00 0.00 0.00 85 1013.2
20260507195003 10 322 6.4 14.5 0.00 0.00 0.00 85 1013.2
20260507194705 10 325 4.8 12.9 0.00 0.00 0.00 86 1013.3
20260507194604 10 326 4.8 12.9 0.00 0.00 0.00 86 1013.3
20260507194504 10 325 4.8 12.9 0.00 0.00 0.00 86 1013.4
20260507194403 10 327 4.8 12.9 0.00 0.00 0.00 86 1013.4
20260507194305 10 330 4.8 12.9 0.00 0.00 0.00 86 1013.3
20260507194204 10 332 4.8 12.9 0.00 0.00 0.00 85 1013.5
20260507194109 10 333 4.8 12.9 0.00 0.00 0.00 86 1013.3
20260507194003 10 333 4.8 12.9 0.00 0.00 0.00 85 1013.3
20260507193903 10 332 4.8 12.9 0.00 0.00 0.00 85 1013.5
20260507193820 10 333 4.8 12.9 0.00 0.00 0.00 86 1013.2
20260507193804 10 334 4.8 12.9 0.00 0.00 0.00 86 1013.2
20260507193704 10 334 4.8 12.9 0.00 0.00 0.00 86 1013.2
20260507193504 10 339 4.8 12.9 0.00 0.00 0.00 85 1013.3
20260507193405 10 340 4.8 12.9 0.00 0.00 0.00 85 1013.2
20260507193305 10 338 3.2 12.9 0.00 0.00 0.00 85 1013.2
20260507193205 10 336 3.2 12.9 0.00 0.00 0.00 85 1013.3
20260507193103 10 335 3.2 12.9 0.00 0.00 0.00 86 1013.3
20260507192905 10 337 3.2 9.7 0.00 0.00 0.00 86 1013.3
20260507192818 10 340 3.2 9.7 0.00 0.00 0.00 86 1013.2
20260507192805 10 342 3.2 9.7 0.00 0.00 0.00 86 1013.2
20260507192703 10 346 3.2 9.7 0.00 0.00 0.00 86 1013.3
20260507192503 10 349 4.8 9.7 0.00 0.00 0.00 86 1013.3
20260507192403 10 350 4.8 9.7 0.00 0.00 0.00 86 1013.3
20260507192306 10 351 4.8 9.7 0.00 0.00 0.00 86 1013.3
20260507192204 10 355 4.8 9.7 0.00 0.00 0.00 86 1013.3
20260507192103 10 356 3.2 9.7 0.00 0.00 0.00 86 1013.4
20260507192005 10 359 3.2 9.7 0.00 0.00 0.00 86 1013.4
20260507191904 10 359 4.8 9.7 0.00 0.00 0.00 86 1013.3
20260507191805 10 355 4.8 9.7 0.00 0.00 0.00 86 1013.3
20260507191704 10 351 3.2 9.7 0.00 0.00 0.00 86 1013.3
20260507191617 10 352 3.2 9.7 0.00 0.00 0.00 86 1013.2
20260507191603 10 351 3.2 9.7 0.00 0.00 0.00 86 1013.2
20260507191503 10 350 3.2 9.7 0.00 0.00 0.00 86 1013.1
20260507191205 10 348 3.2 9.7 0.00 0.00 0.00 86 1013.1
20260507191104 10 346 3.2 9.7 0.00 0.00 0.00 86 1013.5
20260507191016 10 343 3.2 9.7 0.00 0.00 0.00 86 1013.2
20260507191005 10 342 3.2 9.7 0.00 0.00 0.00 86 1013.2
20260507190904 10 339 3.2 9.7 0.00 0.00 0.00 86 1013.2
20260507190703 10 335 4.8 11.3 0.00 0.00 0.00 86 1013.2
20260507190603 10 334 4.8 11.3 0.00 0.00 0.00 86 1013.2
20260507190504 10 333 4.8 11.3 0.00 0.00 0.00 86 1013.2
20260507190420 10 329 3.2 12.9 0.00 0.00 0.00 86 1013.1
20260507190405 10 330 3.2 12.9 0.00 0.00 0.00 86 1013.1
20260507190305 10 331 4.8 12.9 0.00 0.00 0.00 86 1013.2
20260507190105 10 334 4.8 12.9 0.00 0.00 0.00 86 1013.1
20260507190018 10 334 4.8 17.7 0.00 0.00 0.00 86 1013.1
20260507190005 10 333 4.8 17.7 0.00 0.00 0.00 86 1013.1
20260507185921 10 333 4.8 17.7 0.00 0.00 0.00 86 1013.2
20260507185905 10 334 4.8 17.7 0.00 0.00 0.00 86 1013.0
20260507185603 10 335 6.4 17.7 0.00 0.00 0.00 86 1013.0
20260507185519 10 336 6.4 17.7 0.00 0.00 0.00 86 1013.0
20260507185505 10 337 6.4 17.7 0.00 0.00 0.00 86 1013.0
20260507185403 10 340 6.4 17.7 0.00 0.00 0.00 86 1013.1
20260507185205 10 343 6.4 17.7 0.00 0.00 0.00 86 1012.9
20260507185104 10 345 6.4 17.7 0.00 0.00 0.00 86 1012.9
20260507185020 10 344 8.0 17.7 0.00 0.00 0.00 86 1012.9
20260507185005 10 347 8.0 17.7 0.00 0.00 0.00 86 1013.0
20260507184905 10 347 6.4 16.1 0.00 0.00 0.00 86 1012.8
20260507184703 10 350 6.4 20.9 0.00 0.00 0.00 86 1013.2
20260507184603 10 350 6.4 20.9 0.00 0.00 0.00 86 1013.2
20260507184504 10 348 8.0 20.9 0.00 0.00 0.00 86 1012.7
20260507184405 10 347 8.0 20.9 0.00 0.00 0.00 86 1012.7
20260507184304 10 344 6.4 20.9 0.00 0.00 0.00 86 1012.9
20260507184205 10 342 6.4 20.9 0.00 0.00 0.00 86 1012.7
20260507184104 10 340 6.4 20.9 0.00 0.00 0.00 86 1012.7
20260507184003 10 338 6.4 20.9 0.00 0.00 0.00 86 1012.9
20260507183905 10 337 6.4 20.9 0.00 0.00 0.00 86 1012.9
20260507183804 10 339 6.4 20.9 0.00 0.00 0.00 86 1013.0
20260507183705 10 337 6.4 20.9 0.00 0.00 0.00 86 1012.9
20260507183604 10 335 4.8 20.9 0.00 0.00 0.00 86 1012.7
20260507183519 10 337 4.8 14.5 0.00 0.00 0.00 86 1012.7
20260507183505 10 337 4.8 12.9 0.00 0.00 0.00 86 1012.7
20260507183405 10 338 4.8 12.9 0.00 0.00 0.00 87 1012.7
20260507183105 10 342 4.8 12.9 0.00 0.00 0.00 87 1012.8
20260507183003 10 341 4.8 12.9 0.00 0.00 0.00 87 1012.7
20260507182906 10 342 4.8 14.5 0.00 0.00 0.00 87 1012.7
20260507182803 10 343 6.4 14.5 0.00 0.00 0.00 87 1012.8
20260507182705 10 344 6.4 14.5 0.00 0.00 0.00 87 1012.8
20260507182603 10 343 6.4 14.5 0.00 0.00 0.00 87 1012.7
20260507182503 10 344 6.4 16.1 0.00 0.00 0.00 87 1012.7
20260507182403 10 344 6.4 22.5 0.00 0.00 0.00 87 1012.8
20260507182319 10 345 6.4 22.5 0.00 0.00 0.00 87 1012.7
20260507182306 10 344 6.4 22.5 0.00 0.00 0.00 87 1012.6
20260507182217 10 346 6.4 22.5 0.00 0.00 0.00 87 1012.6
20260507182205 10 346 8.0 22.5 0.00 0.00 0.00 87 1012.6
20260507182119 10 348 8.0 22.5 0.00 0.00 0.00 87 1012.7
20260507181803 10 354 9.7 22.5 0.00 0.00 0.00 87 1012.6
20260507181703 10 351 9.7 22.5 0.00 0.00 0.00 87 1012.7
20260507181605 10 350 9.7 22.5 0.00 0.00 0.00 87 1012.7
20260507181504 10 349 9.7 22.5 0.00 0.00 0.00 87 1012.7
20260507181403 10 349 9.7 22.5 0.00 0.00 0.00 87 1012.7
20260507181303 10 349 9.7 22.5 0.00 0.00 0.00 87 1012.7
20260507181204 10 348 9.7 22.5 0.00 0.00 0.00 87 1012.7
20260507181104 10 344 9.7 22.5 0.00 0.00 0.00 87 1012.7
20260507181005 10 343 8.0 20.9 0.00 0.00 0.00 87 1012.6
20260507180905 10 339 8.0 20.9 0.00 0.00 0.00 87 1012.7
20260507180804 10 338 8.0 20.9 0.00 0.00 0.00 87 1012.5
20260507180720 10 340 8.0 20.9 0.00 0.00 0.00 87 1012.8
20260507180705 10 340 8.0 20.9 0.00 0.00 0.00 87 1012.7
20260507180603 10 341 6.4 20.9 0.00 0.00 0.00 87 1012.7
20260507180403 10 336 6.4 20.9 0.00 0.00 0.00 87 1012.6
20260507180305 10 336 6.4 17.7 0.00 0.00 0.00 87 1012.5
20260507180204 10 337 6.4 17.7 0.00 0.00 0.00 87 1012.5
20260507180103 10 341 6.4 17.7 0.00 0.00 0.00 87 1012.4
20260507180004 10 343 6.4 17.7 0.00 0.00 0.00 87 1012.4
20260507175904 10 343 6.4 20.9 0.00 0.00 0.00 87 1012.5
20260507175804 10 342 8.0 22.5 0.00 0.00 0.00 87 1012.5
20260507175703 10 340 8.0 22.5 0.00 0.00 0.00 87 1012.5
20260507175604 10 338 8.0 22.5 0.00 0.00 0.00 87 1012.5
20260507175405 10 337 9.7 22.5 0.00 0.00 0.00 87 1012.4
20260507175320 10 336 9.7 22.5 0.00 0.00 0.00 87 1012.4
20260507175307 10 335 9.7 22.5 0.00 0.00 0.00 87 1012.4
20260507175204 10 334 9.7 22.5 0.00 0.00 0.00 87 1012.4
20260507175003 10 328 9.7 22.5 0.00 0.00 0.00 87 1012.4
20260507174903 10 328 9.7 22.5 0.00 0.00 0.00 87 1012.3
20260507174804 11 325 9.7 22.5 0.00 0.00 0.00 87 1012.3
20260507174720 11 325 9.7 22.5 0.00 0.00 0.00 87 1012.3
20260507174705 11 325 9.7 20.9 0.00 0.00 0.00 87 1012.3
20260507174603 11 329 9.7 22.5 0.00 0.00 0.00 87 1012.4
20260507174404 11 330 9.7 22.5 0.00 0.00 0.00 87 1012.3
20260507174303 11 330 9.7 22.5 0.00 0.00 0.00 87 1012.4
20260507174103 11 331 9.7 22.5 0.00 0.00 0.00 87 1012.3
20260507174005 11 331 9.7 22.5 0.00 0.00 0.00 87 1012.2
20260507173904 11 329 9.7 22.5 0.00 0.00 0.00 87 1012.2
20260507173804 11 330 8.0 22.5 0.00 0.00 0.00 87 1012.2
20260507173605 11 329 8.0 22.5 0.00 0.00 0.00 87 1012.3
20260507173503 11 330 8.0 22.5 0.00 0.00 0.00 87 1012.3
20260507173404 11 332 8.0 16.1 0.00 0.00 0.00 88 1012.3
20260507173320 11 332 8.0 16.1 0.00 0.00 0.00 88 1012.3
20260507173205 11 335 8.0 16.1 0.00 0.00 0.00 87 1012.0
20260507173117 11 333 8.0 17.7 0.00 0.00 0.00 88 1011.9
20260507173020 11 331 8.0 17.7 0.00 0.00 0.00 88 1012.1
20260507173004 11 332 8.0 17.7 0.00 0.00 0.00 88 1012.0
20260507172703 11 330 8.0 17.7 0.00 0.00 0.00 88 1011.8
20260507172604 11 330 8.0 17.7 0.00 0.00 0.00 87 1011.8
20260507172504 11 332 8.0 17.7 0.00 0.00 0.00 87 1012.0
20260507172405 11 332 8.0 17.7 0.00 0.00 0.00 87 1012.0
20260507172307 11 334 8.0 17.7 0.00 0.00 0.00 87 1011.9
20260507172203 11 333 8.0 27.4 0.00 0.00 0.00 87 1012.0
20260507172119 11 338 8.0 27.4 0.00 0.00 0.00 87 1011.8
20260507172103 11 339 8.0 27.4 0.00 0.00 0.00 87 1011.8
20260507172005 11 344 9.7 27.4 0.00 0.00 0.00 87 1011.8
20260507171819 11 346 9.7 27.4 0.00 0.00 0.00 87 1011.9
20260507171804 11 347 9.7 27.4 0.00 0.00 0.00 87 1011.9
20260507171705 11 347 9.7 27.4 0.00 0.00 0.00 87 1011.8
20260507171620 11 347 9.7 27.4 0.00 0.00 0.00 87 1011.8
20260507171503 11 346 9.7 27.4 0.00 0.00 0.00 87 1011.8
20260507171315 11 346 11.3 27.4 0.00 0.00 0.00 87 1011.7
20260507171304 11 346 11.3 27.4 0.00 0.00 0.00 87 1011.9
20260507171205 11 344 11.3 27.4 0.00 0.00 0.00 86 1011.9
20260507171005 11 333 9.7 17.7 0.00 0.00 0.00 86 1011.8
20260507170904 11 332 9.7 17.7 0.00 0.00 0.00 86 1011.8
20260507170804 11 333 8.0 17.7 0.00 0.00 0.00 86 1011.8
20260507170704 11 331 8.0 17.7 0.00 0.00 0.00 86 1011.9
20260507170604 11 330 8.0 22.5 0.00 0.00 0.00 86 1011.9
20260507170503 11 332 8.0 22.5 0.00 0.00 0.00 86 1011.7
20260507170404 11 330 8.0 22.5 0.00 0.00 0.00 86 1011.7
20260507170303 11 327 8.0 22.5 0.00 0.00 0.00 86 1011.7
20260507170205 11 327 8.0 22.5 0.00 0.00 0.00 86 1011.7
20260507170105 11 327 8.0 22.5 0.00 0.00 0.00 86 1011.7
20260507170003 11 325 8.0 22.5 0.00 0.00 0.00 86 1011.8
20260507165903 11 326 8.0 22.5 0.00 0.00 0.00 86 1011.8
20260507165819 11 326 9.7 22.5 0.00 0.00 0.00 86 1011.7
20260507165805 11 324 9.7 22.5 0.00 0.00 0.00 86 1011.6
20260507165718 11 322 9.7 22.5 0.00 0.00 0.00 86 1011.6
20260507165705 11 322 8.0 22.5 0.00 0.00 0.00 86 1011.6
20260507165403 11 319 8.0 17.7 0.00 0.00 0.00 86 1011.8
20260507165320 11 321 8.0 17.7 0.00 0.00 0.00 86 1011.8
20260507165306 11 322 8.0 17.7 0.00 0.00 0.00 86 1011.8
20260507165204 11 324 8.0 17.7 0.00 0.00 0.00 86 1011.7
20260507165005 11 328 8.0 17.7 0.00 0.00 0.00 86 1012.0
20260507164905 11 327 8.0 17.7 0.00 0.00 0.00 86 1011.7
20260507164804 11 327 8.0 22.5 0.00 0.00 0.00 85 1011.7
20260507164719 11 327 8.0 22.5 0.00 0.00 0.00 85 1011.7
20260507164705 11 327 8.0 22.5 0.00 0.00 0.00 85 1011.6
20260507164604 11 325 9.7 22.5 0.00 0.00 0.00 85 1011.6
20260507164404 11 325 9.7 22.5 0.00 0.00 0.00 85 1011.7
20260507164303 11 322 9.7 22.5 0.00 0.00 0.00 85 1011.4
20260507164204 11 321 9.7 22.5 0.00 0.00 0.00 85 1011.6
20260507164104 11 321 9.7 22.5 0.00 0.00 0.00 85 1011.6
20260507164005 11 319 11.3 22.5 0.00 0.00 0.00 85 1011.5
20260507163916 11 319 11.3 22.5 0.00 0.00 0.00 85 1011.5
20260507163903 11 318 11.3 22.5 0.00 0.00 0.00 85 1011.5
20260507163818 11 317 11.3 22.5 0.00 0.00 0.00 84 1011.6
20260507163805 11 318 11.3 22.5 0.00 0.00 0.00 84 1011.4
20260507163503 11 320 11.3 22.5 0.00 0.00 0.00 84 1011.5
20260507163405 12 318 11.3 20.9 0.00 0.00 0.00 84 1011.5
20260507163303 12 317 11.3 20.9 0.00 0.00 0.00 84 1011.5
20260507163204 12 315 11.3 20.9 0.00 0.00 0.00 85 1011.4
20260507163124 12 316 11.3 20.9 0.00 0.00 0.00 84 1011.4
20260507163105 12 317 11.3 20.9 0.00 0.00 0.00 84 1011.4
20260507163004 12 317 11.3 20.9 0.00 0.00 0.00 84 1011.4
20260507162804 12 318 11.3 20.9 0.00 0.00 0.00 84 1011.4
20260507162703 12 317 11.3 20.9 0.00 0.00 0.00 84 1011.5
20260507162605 12 316 11.3 20.9 0.00 0.00 0.00 84 1011.5
20260507162516 12 313 11.3 20.9 0.00 0.00 0.00 84 1011.6
20260507162504 12 312 11.3 20.9 0.00 0.00 0.00 84 1011.4
20260507162404 12 313 11.3 20.9 0.00 0.00 0.00 84 1011.5
20260507162205 12 314 9.7 20.9 0.00 0.00 0.00 84 1011.4
20260507162105 12 312 9.7 20.9 0.00 0.00 0.00 84 1011.5
20260507162004 12 312 11.3 20.9 0.00 0.00 0.00 83 1011.5
20260507161903 12 309 11.3 24.1 0.00 0.00 0.00 83 1011.5
20260507161804 12 306 11.3 24.1 0.00 0.00 0.00 83 1011.5
20260507161705 12 307 11.3 24.1 0.00 0.00 0.00 83 1011.3
20260507161604 12 309 11.3 24.1 0.00 0.00 0.00 84 1011.3
20260507161503 12 309 11.3 24.1 0.00 0.00 0.00 84 1011.3
20260507161404 12 307 11.3 24.1 0.00 0.00 0.00 84 1011.3
20260507161205 12 307 11.3 24.1 0.00 0.00 0.00 83 1011.3
20260507161121 12 307 11.3 24.1 0.00 0.00 0.00 83 1011.3
20260507161105 12 306 11.3 24.1 0.00 0.00 0.00 83 1011.3
20260507161005 12 304 11.3 24.1 0.00 0.00 0.00 83 1011.3
20260507160805 12 304 11.3 24.1 0.00 0.00 0.00 83 1011.3
20260507160704 12 302 9.7 22.5 0.00 0.00 0.00 83 1011.4
20260507160603 12 303 11.3 22.5 0.00 0.00 0.00 83 1011.4
20260507160505 12 304 9.7 22.5 0.00 0.00 0.00 83 1011.4
20260507160404 12 303 9.7 22.5 0.00 0.00 0.00 83 1011.5
20260507160303 12 301 9.7 22.5 0.00 0.00 0.00 83 1011.3
20260507160204 12 300 9.7 22.5 0.00 0.00 0.00 82 1011.5
20260507160105 12 299 9.7 22.5 0.00 0.00 0.00 82 1011.5
20260507160005 12 300 9.7 20.9 0.00 0.00 0.00 83 1011.3
20260507155920 12 301 9.7 20.9 0.00 0.00 0.00 82 1011.3
20260507155903 12 301 9.7 20.9 0.00 0.00 0.00 82 1011.3
20260507155804 12 304 9.7 22.5 0.00 0.00 0.00 82 1011.2
20260507155603 12 306 9.7 22.5 0.00 0.00 0.00 83 1011.3
20260507155505 12 304 9.7 22.5 0.00 0.00 0.00 82 1011.3
20260507155420 12 305 11.3 22.5 0.00 0.00 0.00 82 1011.1
20260507155404 12 307 11.3 22.5 0.00 0.00 0.00 82 1011.3
20260507155306 12 307 11.3 22.5 0.00 0.00 0.00 82 1011.3
20260507155218 12 310 12.9 22.5 0.00 0.00 0.00 83 1011.3
20260507155104 12 311 12.9 22.5 0.00 0.00 0.00 82 1011.2
20260507154905 12 312 12.9 22.5 0.00 0.00 0.00 82 1011.2
20260507154804 12 313 12.9 22.5 0.00 0.00 0.00 82 1011.2
20260507154705 13 315 12.9 22.5 0.00 0.00 0.00 82 1011.2
20260507154604 13 316 12.9 22.5 0.00 0.00 0.00 82 1011.0
20260507154504 13 318 12.9 22.5 0.00 0.00 0.00 82 1011.0
20260507154418 13 321 11.3 22.5 0.00 0.00 0.00 82 1011.2
20260507154404 13 321 11.3 22.5 0.00 0.00 0.00 82 1011.1
20260507154118 13 324 9.7 20.9 0.00 0.00 0.00 81 1010.9
20260507154104 13 324 9.7 20.9 0.00 0.00 0.00 81 1010.9
20260507154004 13 324 9.7 20.9 0.00 0.00 0.00 81 1010.8
20260507153805 13 323 9.7 20.9 0.00 0.00 0.00 80 1011.1
20260507153704 13 320 8.0 20.9 0.00 0.00 0.00 80 1011.1
20260507153604 13 318 8.0 20.9 0.00 0.00 0.00 80 1011.0
20260507153518 13 316 8.0 20.9 0.00 0.00 0.00 80 1011.0
20260507153404 13 311 8.0 20.9 0.00 0.00 0.00 79 1011.0
20260507153205 13 305 8.0 20.9 0.00 0.00 0.00 79 1011.0
20260507153103 13 303 8.0 20.9 0.00 0.00 0.00 79 1011.0
20260507153005 13 300 6.4 14.5 0.00 0.00 0.00 80 1011.1
20260507152904 13 301 6.4 17.7 0.00 0.00 0.00 79 1010.9
20260507152820 13 300 6.4 17.7 0.00 0.00 0.00 79 1010.9
20260507152805 13 299 6.4 17.7 0.00 0.00 0.00 79 1010.9
20260507152719 13 298 6.4 17.7 0.00 0.00 0.00 79 1010.9
20260507152705 13 298 6.4 17.7 0.00 0.00 0.00 79 1010.9
20260507152403 13 297 8.0 20.9 0.00 0.00 0.00 80 1010.9
20260507152306 13 300 9.7 22.5 0.00 0.00 0.00 80 1010.9
20260507152205 13 297 9.7 22.5 0.00 0.00 0.00 79 1010.9
20260507152103 13 296 9.7 22.5 0.00 0.00 0.00 79 1010.8
20260507152005 13 296 11.3 22.5 0.00 0.00 0.00 79 1010.8
20260507151903 13 291 11.3 22.5 0.00 0.00 0.00 79 1011.0
20260507151804 13 292 11.3 22.5 0.00 0.00 0.00 79 1011.0
20260507151703 13 291 11.3 22.5 0.00 0.00 0.00 78 1010.8
20260507151605 13 293 11.3 22.5 0.00 0.00 0.00 79 1010.8
20260507151505 13 292 11.3 22.5 0.00 0.00 0.00 79 1010.9
20260507151403 13 293 11.3 22.5 0.00 0.00 0.00 79 1010.9
20260507151304 14 292 11.3 22.5 0.00 0.00 0.00 78 1011.0
20260507151105 14 295 9.7 20.9 0.00 0.00 0.00 78 1011.0
20260507151004 14 297 9.7 20.9 0.00 0.00 0.00 79 1011.0
20260507150904 14 303 9.7 20.9 0.00 0.00 0.00 78 1011.1
20260507150806 14 306 9.7 17.7 0.00 0.00 0.00 78 1011.1
20260507150703 14 314 9.7 17.7 0.00 0.00 0.00 78 1011.1
20260507150603 14 316 8.0 17.7 0.00 0.00 0.00 79 1011.1
20260507150505 14 316 8.0 17.7 0.00 0.00 0.00 79 1011.0
20260507150405 14 318 9.7 17.7 0.00 0.00 0.00 79 1011.1
20260507150303 14 320 9.7 17.7 0.00 0.00 0.00 79 1011.0
20260507150220 14 323 9.7 17.7 0.00 0.00 0.00 79 1011.0
20260507150203 14 323 9.7 17.7 0.00 0.00 0.00 78 1011.0
20260507150118 14 325 9.7 17.7 0.00 0.00 0.00 79 1010.9
20260507150104 14 326 9.7 17.7 0.00 0.00 0.00 79 1010.9
20260507145805 14 324 9.7 17.7 0.00 0.00 0.00 80 1010.8
20260507145704 14 320 9.7 17.7 0.00 0.00 0.00 79 1010.9
20260507145619 14 318 9.7 17.7 0.00 0.00 0.00 80 1010.9
20260507145604 14 319 9.7 17.7 0.00 0.00 0.00 80 1010.9
20260507145505 14 319 9.7 22.5 0.00 0.00 0.00 78 1010.9
20260507145306 14 314 9.7 22.5 0.00 0.00 0.00 77 1010.8
20260507145204 14 312 9.7 22.5 0.00 0.00 0.00 77 1010.8
20260507145104 14 310 9.7 22.5 0.00 0.00 0.00 77 1010.7
20260507145005 14 309 9.7 22.5 0.00 0.00 0.00 77 1010.7
20260507144905 14 309 9.7 22.5 0.00 0.00 0.00 78 1010.9
20260507144803 14 309 9.7 22.5 0.00 0.00 0.00 77 1010.9
20260507144704 14 307 9.7 22.5 0.00 0.00 0.00 77 1010.7
20260507144605 14 308 9.7 22.5 0.00 0.00 0.00 77 1010.7
20260507144503 14 310 9.7 22.5 0.00 0.00 0.00 76 1010.8
20260507144415 14 311 9.7 22.5 0.00 0.00 0.00 76 1010.8
20260507144304 15 312 9.7 17.7 0.00 0.00 0.00 77 1010.7
20260507144203 15 311 9.7 17.7 0.00 0.00 0.00 77 1010.7
20260507144118 15 313 9.7 17.7 0.00 0.00 0.00 77 1010.8
20260507144104 15 314 9.7 17.7 0.00 0.00 0.00 77 1010.6
20260507144004 15 316 9.7 17.7 0.00 0.00 0.00 76 1010.6
20260507143705 15 323 9.7 24.1 0.00 0.00 0.00 76 1010.7
20260507143604 15 322 9.7 24.1 0.00 0.00 0.00 76 1010.7
20260507143503 15 323 9.7 24.1 0.00 0.00 0.00 76 1010.6
20260507143416 15 323 9.7 24.1 0.00 0.00 0.00 76 1010.6
20260507143405 15 323 9.7 24.1 0.00 0.00 0.00 76 1010.8
20260507143304 15 323 9.7 24.1 0.00 0.00 0.00 77 1010.6
20260507143103 15 324 8.0 24.1 0.00 0.00 0.00 75 1010.5
20260507143003 15 320 8.0 24.1 0.00 0.00 0.00 75 1010.5
20260507142903 15 319 9.7 24.1 0.00 0.00 0.00 75 1010.5
20260507142805 15 318 9.7 24.1 0.00 0.00 0.00 74 1010.5
20260507142704 15 317 9.7 24.1 0.00 0.00 0.00 75 1010.6
20260507142603 15 317 9.7 22.5 0.00 0.00 0.00 75 1010.6
20260507142519 15 316 9.7 22.5 0.00 0.00 0.00 75 1010.4
20260507142503 15 315 9.7 22.5 0.00 0.00 0.00 75 1010.6
20260507142405 15 315 9.7 22.5 0.00 0.00 0.00 75 1010.6
20260507142204 15 316 11.3 22.5 0.00 0.00 0.00 74 1010.6
20260507142103 15 312 11.3 22.5 0.00 0.00 0.00 75 1010.5
20260507142003 16 313 11.3 22.5 0.00 0.00 0.00 73 1010.5
20260507141905 16 312 11.3 22.5 0.00 0.00 0.00 75 1010.5
20260507141805 16 313 11.3 22.5 0.00 0.00 0.00 74 1010.5
20260507141704 16 314 9.7 22.5 0.00 0.00 0.00 74 1010.3
20260507141505 16 314 9.7 20.9 0.00 0.00 0.00 73 1010.4
20260507141405 16 314 8.0 20.9 0.00 0.00 0.00 73 1010.5
20260507141304 16 311 8.0 17.7 0.00 0.00 0.00 74 1010.2
20260507141204 16 311 8.0 17.7 0.00 0.00 0.00 74 1010.2
20260507141105 16 315 8.0 17.7 0.00 0.00 0.00 74 1010.4
20260507141018 16 316 8.0 17.7 0.00 0.00 0.00 74 1010.4
20260507141003 16 316 8.0 17.7 0.00 0.00 0.00 73 1010.3
20260507140903 16 318 8.0 17.7 0.00 0.00 0.00 73 1010.3
20260507140705 16 316 9.7 17.7 0.00 0.00 0.00 74 1010.3
20260507140605 16 314 9.7 20.9 0.00 0.00 0.00 73 1010.3
20260507140503 16 314 9.7 20.9 0.00 0.00 0.00 73 1010.1
20260507140406 16 314 9.7 20.9 0.00 0.00 0.00 73 1010.2
20260507140305 16 316 9.7 20.9 0.00 0.00 0.00 73 1010.2
20260507140219 16 315 9.7 20.9 0.00 0.00 0.00 72 1010.2
20260507140205 16 316 9.7 22.5 0.00 0.00 0.00 72 1010.2
20260507140104 17 316 9.7 22.5 0.00 0.00 0.00 73 1010.3
20260507135905 17 315 9.7 22.5 0.00 0.00 0.00 72 1010.1
20260507135804 17 313 11.3 22.5 0.00 0.00 0.00 72 1010.2
20260507135704 17 315 11.3 22.5 0.00 0.00 0.00 71 1010.1
20260507135619 17 316 11.3 22.5 0.00 0.00 0.00 71 1010.1
20260507135605 17 317 11.3 22.5 0.00 0.00 0.00 71 1010.0
20260507135503 17 315 11.3 22.5 0.00 0.00 0.00 71 1010.2
20260507135416 17 315 11.3 22.5 0.00 0.00 0.00 71 1010.2
20260507135306 17 315 11.3 22.5 0.00 0.00 0.00 70 1009.9
20260507135104 18 309 11.3 22.5 0.00 0.00 0.00 70 1009.9
20260507135005 18 305 9.7 20.9 0.00 0.00 0.00 70 1009.9
20260507134905 18 301 9.7 20.9 0.00 0.00 0.00 69 1009.9
20260507134804 18 297 9.7 20.9 0.00 0.00 0.00 69 1009.9
20260507134703 18 297 9.7 20.9 0.00 0.00 0.00 69 1009.9
20260507134603 18 293 9.7 20.9 0.00 0.00 0.00 68 1009.9
20260507134505 18 291 8.0 20.9 0.00 0.00 0.00 69 1009.9
20260507134405 18 287 8.0 20.9 0.00 0.00 0.00 68 1010.0
20260507134303 18 283 8.0 17.7 0.00 0.00 0.00 68 1009.8
20260507134204 18 284 8.0 17.7 0.00 0.00 0.00 70 1009.8
20260507134103 18 284 8.0 17.7 0.00 0.00 0.00 68 1009.6
20260507134004 18 285 8.0 17.7 0.00 0.00 0.00 67 1009.6
20260507133919 18 285 8.0 16.1 0.00 0.00 0.00 67 1009.8
20260507133903 18 286 8.0 17.7 0.00 0.00 0.00 68 1009.8
20260507133804 18 287 8.0 20.9 0.00 0.00 0.00 69 1009.7
20260507133605 18 287 8.0 20.9 0.00 0.00 0.00 68 1009.6
20260507133504 18 287 8.0 20.9 0.00 0.00 0.00 69 1009.6
20260507133405 18 289 9.7 20.9 0.00 0.00 0.00 69 1009.6
20260507133303 18 287 8.0 20.9 0.00 0.00 0.00 67 1009.7
20260507133203 18 287 8.0 20.9 0.00 0.00 0.00 67 1009.5
20260507133104 18 287 8.0 20.9 0.00 0.00 0.00 66 1009.5
20260507133005 18 290 9.7 20.9 0.00 0.00 0.00 67 1009.6
20260507132903 18 293 9.7 20.9 0.00 0.00 0.00 66 1009.6
20260507132805 18 295 9.7 20.9 0.00 0.00 0.00 66 1009.6
20260507132705 18 293 9.7 17.7 0.00 0.00 0.00 66 1009.5
20260507132603 18 293 8.0 17.7 0.00 0.00 0.00 67 1009.5
20260507132505 18 293 8.0 17.7 0.00 0.00 0.00 67 1009.6
20260507132418 18 293 8.0 17.7 0.00 0.00 0.00 67 1009.6
20260507132307 18 294 9.7 17.7 0.00 0.00 0.00 66 1009.5
20260507132105 18 298 9.7 17.7 0.00 0.00 0.00 64 1009.5
20260507132003 18 295 8.0 17.7 0.00 0.00 0.00 65 1009.5
20260507131903 18 293 8.0 17.7 0.00 0.00 0.00 65 1009.6
20260507131804 18 288 8.0 17.7 0.00 0.00 0.00 64 1009.5
20260507131704 18 288 8.0 17.7 0.00 0.00 0.00 65 1009.4
20260507131605 18 290 8.0 20.9 0.00 0.00 0.00 65 1009.4
20260507131504 18 291 8.0 20.9 0.00 0.00 0.00 66 1009.4
20260507131405 18 289 9.7 20.9 0.00 0.00 0.00 65 1009.2
20260507131319 18 289 9.7 20.9 0.00 0.00 0.00 64 1009.2
20260507131303 18 289 8.0 25.7 0.00 0.00 0.00 64 1009.5
20260507131203 18 287 8.0 25.7 0.00 0.00 0.00 65 1009.3
20260507131004 18 285 9.7 25.7 0.00 0.00 0.00 66 1009.4
20260507130905 19 286 9.7 25.7 0.00 0.00 0.00 66 1009.4
20260507130803 18 287 9.7 25.7 0.00 0.00 0.00 67 1009.4
20260507130705 19 289 9.7 25.7 0.00 0.00 0.00 65 1009.3
20260507130603 19 289 9.7 25.7 0.00 0.00 0.00 65 1009.3
20260507130503 19 292 9.7 25.7 0.00 0.00 0.00 67 1009.3
20260507130405 18 296 9.7 25.7 0.00 0.00 0.00 68 1009.3
20260507130303 18 298 11.3 25.7 0.00 0.00 0.00 66 1009.3
20260507130219 18 301 11.3 25.7 0.00 0.00 0.00 66 1009.3
20260507130205 18 301 11.3 25.7 0.00 0.00 0.00 66 1009.3
20260507130105 18 303 11.3 25.7 0.00 0.00 0.00 67 1009.2
20260507125903 18 304 11.3 25.7 0.00 0.00 0.00 67 1009.3
20260507125803 18 306 12.9 24.1 0.00 0.00 0.00 66 1009.4
20260507125704 18 303 12.9 24.1 0.00 0.00 0.00 67 1009.2
20260507125605 18 303 12.9 24.1 0.00 0.00 0.00 65 1009.2
20260507125505 18 303 12.9 24.1 0.00 0.00 0.00 67 1009.3
20260507125404 18 301 12.9 24.1 0.00 0.00 0.00 65 1009.3
20260507125306 19 299 12.9 24.1 0.00 0.00 0.00 67 1009.4
20260507125204 19 297 11.3 24.1 0.00 0.00 0.00 68 1009.3
20260507125105 19 294 11.3 27.4 0.00 0.00 0.00 68 1009.2
20260507125003 19 289 12.9 27.4 0.00 0.00 0.00 65 1009.2
20260507124905 19 289 12.9 27.4 0.00 0.00 0.00 65 1009.3
20260507124819 19 290 11.3 27.4 0.00 0.00 0.00 65 1009.3
20260507124805 19 289 11.3 27.4 0.00 0.00 0.00 65 1009.3
20260507124703 19 288 11.3 27.4 0.00 0.00 0.00 65 1009.3
20260507124505 19 290 11.3 27.4 0.00 0.00 0.00 66 1009.2
20260507124403 19 289 11.3 27.4 0.00 0.00 0.00 66 1009.3
20260507124304 19 289 11.3 27.4 0.00 0.00 0.00 66 1009.4
20260507124203 19 287 11.3 27.4 0.00 0.00 0.00 67 1009.4
20260507124103 19 285 11.3 27.4 0.00 0.00 0.00 65 1009.4
20260507124003 19 285 11.3 27.4 0.00 0.00 0.00 65 1009.6
20260507123903 19 283 11.3 24.1 0.00 0.00 0.00 66 1009.6
20260507123803 19 277 11.3 24.1 0.00 0.00 0.00 64 1009.4
20260507123704 19 280 11.3 25.7 0.00 0.00 0.00 65 1009.4
20260507123604 20 275 11.3 25.7 0.00 0.00 0.00 64 1009.4
20260507123503 20 272 11.3 25.7 0.00 0.00 0.00 65 1009.3
20260507123403 20 272 11.3 25.7 0.00 0.00 0.00 65 1009.3
20260507123303 20 271 11.3 25.7 0.00 0.00 0.00 65 1009.5
20260507123203 20 270 11.3 25.7 0.00 0.00 0.00 65 1009.2
20260507123104 20 270 11.3 25.7 0.00 0.00 0.00 65 1009.3
20260507123004 20 270 9.7 25.7 0.00 0.00 0.00 64 1009.4
20260507122904 20 269 9.7 25.7 0.00 0.00 0.00 65 1009.3
20260507122803 20 270 9.7 25.7 0.00 0.00 0.00 65 1009.3
20260507122705 20 273 9.7 25.7 0.00 0.00 0.00 65 1009.4
20260507122603 20 276 9.7 25.7 0.00 0.00 0.00 63 1009.4
20260507122503 20 281 9.7 22.5 0.00 0.00 0.00 65 1009.2
20260507122405 20 283 9.7 22.5 0.00 0.00 0.00 65 1009.2
20260507122316 20 287 9.7 22.5 0.00 0.00 0.00 65 1009.2
20260507122306 20 287 9.7 22.5 0.00 0.00 0.00 65 1009.3
20260507122203 20 292 9.7 22.5 0.00 0.00 0.00 65 1009.1
20260507122004 20 297 9.7 22.5 0.00 0.00 0.00 65 1009.1
20260507121918 20 300 9.7 22.5 0.00 0.00 0.00 65 1009.1
20260507121903 20 300 9.7 22.5 0.00 0.00 0.00 65 1009.1
20260507121803 20 303 9.7 22.5 0.00 0.00 0.00 64 1009.1
20260507121604 20 292 8.0 22.5 0.00 0.00 0.00 65 1009.2
20260507121505 20 285 8.0 22.5 0.00 0.00 0.00 65 1009.0
20260507121405 20 278 8.0 17.7 0.00 0.00 0.00 63 1009.0
20260507121303 20 275 6.4 17.7 0.00 0.00 0.00 63 1009.2
20260507121205 20 272 6.4 17.7 0.00 0.00 0.00 65 1009.2
20260507121104 20 268 6.4 17.7 0.00 0.00 0.00 66 1009.1
20260507121003 20 270 6.4 17.7 0.00 0.00 0.00 64 1009.1
20260507120916 20 275 6.4 17.7 0.00 0.00 0.00 66 1009.1
20260507120905 20 275 6.4 17.7 0.00 0.00 0.00 66 1009.2
20260507120804 20 275 6.4 17.7 0.00 0.00 0.00 64 1009.2
20260507120604 20 287 6.4 17.7 0.00 0.00 0.00 65 1009.1
20260507120503 20 289 6.4 25.7 0.00 0.00 0.00 65 1009.1
20260507120417 20 287 6.4 25.7 0.00 0.00 0.00 65 1008.9
20260507120405 20 287 6.4 25.7 0.00 0.00 0.00 65 1009.0
20260507120304 20 286 8.0 25.7 0.00 0.00 0.00 65 1009.0
20260507120103 20 281 9.7 25.7 0.00 0.00 0.00 64 1009.1
20260507120020 20 280 9.7 25.7 0.00 0.00 0.00 64 1009.1
20260507120005 20 279 9.7 25.7 0.00 0.00 0.00 64 1009.0
20260507115918 20 275 9.7 25.7 0.00 0.00 0.00 65 1009.0
20260507115903 20 274 9.7 25.7 0.00 0.00 0.00 65 1009.0
20260507115605 20 268 9.7 25.7 0.00 0.00 0.00 66 1009.1
20260507115503 20 271 9.7 25.7 0.00 0.00 0.00 65 1009.0
20260507115404 20 275 11.3 25.7 0.00 0.00 0.00 64 1009.0
20260507115307 20 274 9.7 25.7 0.00 0.00 0.00 64 1009.1
20260507115203 20 277 9.7 25.7 0.00 0.00 0.00 65 1009.0
20260507115103 20 277 9.7 25.7 0.00 0.00 0.00 66 1008.8
20260507115005 20 277 9.7 25.7 0.00 0.00 0.00 69 1008.9
20260507114904 20 278 9.7 22.5 0.00 0.00 0.00 69 1009.0
20260507114819 20 281 9.7 22.5 0.00 0.00 0.00 69 1009.0
20260507114805 20 282 9.7 22.5 0.00 0.00 0.00 66 1009.0
20260507114704 20 289 9.7 25.7 0.00 0.00 0.00 66 1008.8
20260507114519 20 291 11.3 25.7 0.00 0.00 0.00 65 1008.8
20260507114503 20 290 11.3 25.7 0.00 0.00 0.00 65 1008.8
20260507114417 19 290 11.3 25.7 0.00 0.00 0.00 68 1008.8
20260507114403 19 292 11.3 25.7 0.00 0.00 0.00 68 1008.6
20260507114105 19 298 12.9 25.7 0.00 0.00 0.00 66 1008.7
20260507114003 19 304 11.3 25.7 0.00 0.00 0.00 67 1008.8
20260507113903 19 306 12.9 25.7 0.00 0.00 0.00 66 1008.8
20260507113817 19 305 12.9 25.7 0.00 0.00 0.00 66 1008.6
20260507113804 19 305 12.9 25.7 0.00 0.00 0.00 66 1008.7
20260507113703 19 304 12.9 25.7 0.00 0.00 0.00 66 1008.7
20260507113504 20 304 11.3 24.1 0.00 0.00 0.00 67 1008.5
20260507113405 20 303 9.7 24.1 0.00 0.00 0.00 66 1008.8
20260507113303 20 305 9.7 22.5 0.00 0.00 0.00 66 1008.6
20260507113221 20 302 9.7 22.5 0.00 0.00 0.00 66 1008.6
20260507113205 20 302 9.7 22.5 0.00 0.00 0.00 68 1008.4
20260507113103 20 301 9.7 20.9 0.00 0.00 0.00 66 1008.7
20260507112903 20 295 9.7 20.9 0.00 0.00 0.00 67 1008.5
20260507112805 20 294 8.0 20.9 0.00 0.00 0.00 66 1008.5
20260507112704 20 292 8.0 16.1 0.00 0.00 0.00 66 1008.6
20260507112603 20 291 8.0 16.1 0.00 0.00 0.00 68 1008.5
20260507112504 20 294 8.0 16.1 0.00 0.00 0.00 67 1008.5
20260507112403 20 292 8.0 16.1 0.00 0.00 0.00 67 1008.6
20260507112306 20 297 8.0 20.9 0.00 0.00 0.00 66 1008.5
20260507112205 20 300 8.0 20.9 0.00 0.00 0.00 66 1008.6
20260507112103 20 304 8.0 20.9 0.00 0.00 0.00 66 1008.3
20260507112004 20 307 9.7 20.9 0.00 0.00 0.00 67 1008.5
20260507111905 20 310 9.7 20.9 0.00 0.00 0.00 68 1008.4
20260507111803 20 314 9.7 20.9 0.00 0.00 0.00 66 1008.5
20260507111704 20 315 9.7 20.9 0.00 0.00 0.00 68 1008.5
20260507111603 19 312 9.7 20.9 0.00 0.00 0.00 69 1008.5
20260507111506 19 309 9.7 20.9 0.00 0.00 0.00 68 1008.6
20260507111419 19 309 9.7 20.9 0.00 0.00 0.00 68 1008.6
20260507111403 19 309 9.7 20.9 0.00 0.00 0.00 68 1008.6
20260507111303 19 302 9.7 20.9 0.00 0.00 0.00 68 1008.6
20260507111104 19 295 8.0 20.9 0.00 0.00 0.00 67 1008.6
20260507111005 20 291 8.0 20.9 0.00 0.00 0.00 67 1008.6
20260507110805 19 287 8.0 24.1 0.00 0.00 0.00 66 1008.6
20260507110717 19 285 8.0 24.1 0.00 0.00 0.00 67 1008.6
20260507110703 19 285 8.0 24.1 0.00 0.00 0.00 67 1008.5
20260507110605 19 285 8.0 24.1 0.00 0.00 0.00 67 1008.5
20260507110405 19 285 9.7 24.1 0.00 0.00 0.00 67 1008.6
20260507110304 19 288 9.7 24.1 0.00 0.00 0.00 69 1008.6
20260507110119 19 291 9.7 24.1 0.00 0.00 0.00 69 1008.6
20260507110104 19 291 9.7 24.1 0.00 0.00 0.00 67 1008.5
20260507110003 19 290 9.7 24.1 0.00 0.00 0.00 68 1008.5
20260507105804 19 287 9.7 24.1 0.00 0.00 0.00 67 1008.6
20260507105704 19 290 9.7 24.1 0.00 0.00 0.00 67 1008.7
20260507105603 19 291 9.7 22.5 0.00 0.00 0.00 66 1008.5
20260507105503 19 291 9.7 22.5 0.00 0.00 0.00 66 1008.4
20260507105403 19 292 9.7 22.5 0.00 0.00 0.00 65 1008.5
20260507105306 20 287 8.0 22.5 0.00 0.00 0.00 64 1008.6
20260507105205 20 282 8.0 22.5 0.00 0.00 0.00 66 1008.7
20260507105103 20 275 8.0 22.5 0.00 0.00 0.00 66 1008.6
20260507105003 20 275 8.0 22.5 0.00 0.00 0.00 65 1008.6
20260507104904 20 277 8.0 22.5 0.00 0.00 0.00 65 1008.5
20260507104805 20 277 8.0 22.5 0.00 0.00 0.00 63 1008.7
20260507104705 20 273 8.0 22.5 0.00 0.00 0.00 64 1008.7
20260507104603 20 271 8.0 22.5 0.00 0.00 0.00 64 1008.5
20260507104504 20 267 8.0 22.5 0.00 0.00 0.00 64 1008.4
20260507104405 20 265 8.0 22.5 0.00 0.00 0.00 66 1008.4
20260507104319 20 262 8.0 22.5 0.00 0.00 0.00 66 1008.4
20260507104304 20 262 8.0 22.5 0.00 0.00 0.00 64 1008.4
20260507104204 20 261 8.0 22.5 0.00 0.00 0.00 64 1008.4
20260507104004 20 263 9.7 25.7 0.00 0.00 0.00 65 1008.5
20260507103904 20 258 11.3 25.7 0.00 0.00 0.00 68 1008.5
20260507103820 20 252 11.3 25.7 0.00 0.00 0.00 65 1008.3
20260507103804 20 250 11.3 25.7 0.00 0.00 0.00 65 1008.5
20260507103703 20 246 11.3 25.7 0.00 0.00 0.00 65 1008.5
20260507103503 20 246 11.3 25.7 0.00 0.00 0.00 64 1008.3
20260507103403 20 249 11.3 25.7 0.00 0.00 0.00 68 1008.3
20260507103305 20 250 11.3 25.7 0.00 0.00 0.00 63 1008.4
20260507103205 20 250 11.3 25.7 0.00 0.00 0.00 64 1008.5
20260507103119 20 250 11.3 25.7 0.00 0.00 0.00 64 1008.5
20260507103105 20 250 11.3 25.7 0.00 0.00 0.00 64 1008.5
20260507103003 20 247 11.3 24.1 0.00 0.00 0.00 65 1008.3
20260507102705 20 253 9.7 22.5 0.00 0.00 0.00 63 1008.3
20260507102605 20 247 9.7 24.1 0.00 0.00 0.00 65 1008.4
20260507102505 20 248 9.7 25.7 0.00 0.00 0.00 65 1008.4
20260507102404 20 247 11.3 25.7 0.00 0.00 0.00 64 1008.3
20260507102306 20 248 11.3 25.7 0.00 0.00 0.00 63 1008.3
20260507102205 20 248 11.3 25.7 0.00 0.00 0.00 65 1008.2
20260507102103 20 250 11.3 25.7 0.00 0.00 0.00 64 1008.3
20260507102004 20 253 12.9 25.7 0.00 0.00 0.00 65 1008.3
20260507101903 20 253 12.9 25.7 0.00 0.00 0.00 65 1008.3
20260507101803 20 252 12.9 25.7 0.00 0.00 0.00 67 1008.0
20260507101703 20 253 12.9 25.7 0.00 0.00 0.00 64 1008.1
20260507101604 20 254 12.9 25.7 0.00 0.00 0.00 64 1008.0
20260507101404 20 257 11.3 25.7 0.00 0.00 0.00 64 1008.1
20260507101304 20 256 9.7 25.7 0.00 0.00 0.00 65 1008.0
20260507101205 20 255 9.7 25.7 0.00 0.00 0.00 63 1008.0
20260507101103 20 258 9.7 25.7 0.00 0.00 0.00 65 1008.1
20260507101003 20 258 8.0 25.7 0.00 0.00 0.00 64 1008.0
20260507100905 20 259 8.0 20.9 0.00 0.00 0.00 64 1008.0
20260507100818 20 264 8.0 20.9 0.00 0.00 0.00 66 1007.9
20260507100803 20 266 8.0 20.9 0.00 0.00 0.00 66 1007.9
20260507100518 20 266 8.0 20.9 0.00 0.00 0.00 67 1007.8
20260507100503 20 265 8.0 20.9 0.00 0.00 0.00 67 1007.8
20260507100405 20 265 8.0 20.9 0.00 0.00 0.00 65 1008.0
20260507100203 20 268 8.0 20.9 0.00 0.00 0.00 65 1007.7
20260507100103 20 265 8.0 17.7 0.00 0.00 0.00 68 1007.9